Wetterdaten: Donnerstag, 02.02.2023
Datum Zeit Temp. Aussen Temp. o. S. Temp +5cm Feuchte Auss Luftdruck Regen Sonnenschein Regendauer Solar Windben Empfang
02.02.2023 00:00 7,6 C 6,7 C 3,3 C 88 % 1021,0 hPa 0,0 l/m 0 min 0 min 0 W/m 22,5 km/h (4 Bft) 100,00 %
02.02.2023 00:02 7,6 C 6,7 C 3,3 C 88 % 1021,1 hPa 0,0 l/m 0 min 0 min 0 W/m 22,5 km/h (4 Bft) 97,67 %
02.02.2023 00:04 7,6 C 6,7 C 3,3 C 88 % 1021,1 hPa 0,0 l/m 0 min 0 min 0 W/m 19,3 km/h (3 Bft) 100,00 %
02.02.2023 00:07 7,6 C 6,7 C 3,3 C 88 % 1021,1 hPa 0,0 l/m 0 min 0 min 0 W/m 12,9 km/h (3 Bft) 100,00 %
02.02.2023 00:14 7,6 C 7,2 C 3,3 C 88 % 1021,1 hPa 0,0 l/m 0 min 0 min 0 W/m 22,5 km/h (4 Bft) 95,12 %
02.02.2023 00:16 7,6 C 6,7 C 3,3 C 88 % 1021,1 hPa 0,0 l/m 0 min 0 min 0 W/m 16,1 km/h (3 Bft) 100,00 %
02.02.2023 00:18 7,6 C 6,7 C 3,3 C 88 % 1021,1 hPa 0,0 l/m 0 min 0 min 0 W/m 16,1 km/h (3 Bft) 100,00 %
02.02.2023 00:20 7,6 C 6,7 C 3,3 C 88 % 1021,1 hPa 0,0 l/m 0 min 0 min 0 W/m 16,1 km/h (3 Bft) 100,00 %
02.02.2023 00:22 7,6 C 6,7 C 3,3 C 88 % 1021,1 hPa 0,0 l/m 0 min 0 min 0 W/m 22,5 km/h (4 Bft) 100,00 %
02.02.2023 00:24 7,6 C 6,7 C 3,3 C 88 % 1021,1 hPa 0,0 l/m 0 min 0 min 0 W/m 16,1 km/h (3 Bft) 95,74 %
02.02.2023 00:26 7,6 C 6,7 C 3,3 C 88 % 1021,1 hPa 0,0 l/m 0 min 0 min 0 W/m 9,7 km/h (2 Bft) 100,00 %
02.02.2023 00:28 7,6 C 6,7 C 3,3 C 88 % 1021,2 hPa 0,0 l/m 0 min 0 min 0 W/m 19,3 km/h (3 Bft) 100,00 %
02.02.2023 00:30 7,6 C 6,7 C 3,3 C 88 % 1021,1 hPa 0,0 l/m 0 min 0 min 0 W/m 16,1 km/h (3 Bft) 100,00 %
02.02.2023 00:32 7,6 C 6,7 C 3,3 C 88 % 1021,2 hPa 0,0 l/m 0 min 0 min 0 W/m 12,9 km/h (3 Bft) 100,00 %
02.02.2023 00:34 7,6 C 6,7 C 3,3 C 88 % 1021,2 hPa 0,0 l/m 0 min 0 min 0 W/m 19,3 km/h (3 Bft) 100,00 %
02.02.2023 00:36 7,6 C 6,7 C 3,3 C 88 % 1021,2 hPa 0,0 l/m 0 min 0 min 0 W/m 16,1 km/h (3 Bft) 100,00 %
02.02.2023 00:38 7,6 C 6,7 C 3,3 C 88 % 1021,2 hPa 0,0 l/m 0 min 0 min 0 W/m 19,3 km/h (3 Bft) 100,00 %
02.02.2023 00:40 7,5 C 6,7 C 3,3 C 88 % 1021,3 hPa 0,0 l/m 0 min 0 min 0 W/m 12,9 km/h (3 Bft) 95,74 %
02.02.2023 00:42 7,6 C 6,7 C 3,3 C 88 % 1021,4 hPa 0,0 l/m 0 min 0 min 0 W/m 19,3 km/h (3 Bft) 97,87 %
02.02.2023 00:44 7,5 C 6,7 C 3,3 C 89 % 1021,3 hPa 0,0 l/m 0 min 0 min 0 W/m 16,1 km/h (3 Bft) 100,00 %
02.02.2023 00:46 7,5 C 6,7 C 3,3 C 89 % 1021,3 hPa 0,0 l/m 0 min 0 min 0 W/m 19,3 km/h (3 Bft) 97,87 %
02.02.2023 00:48 7,5 C 6,7 C 3,3 C 89 % 1021,3 hPa 0,0 l/m 0 min 0 min 0 W/m 12,9 km/h (3 Bft) 97,87 %
02.02.2023 00:50 7,4 C 6,7 C 3,3 C 89 % 1021,3 hPa 0,0 l/m 0 min 0 min 0 W/m 19,3 km/h (3 Bft) 97,83 %
02.02.2023 00:52 7,4 C 6,7 C 3,3 C 89 % 1021,3 hPa 0,0 l/m 0 min 0 min 0 W/m 16,1 km/h (3 Bft) 97,87 %
02.02.2023 00:54 7,4 C 6,7 C 3,3 C 89 % 1021,3 hPa 0,0 l/m 0 min 0 min 0 W/m 16,1 km/h (3 Bft) 97,87 %
02.02.2023 00:56 7,4 C 6,7 C 3,3 C 89 % 1021,4 hPa 0,0 l/m 0 min 0 min 0 W/m 12,9 km/h (3 Bft) 97,87 %
02.02.2023 00:58 7,4 C 6,7 C 3,3 C 89 % 1021,4 hPa 0,0 l/m 0 min 0 min 0 W/m 16,1 km/h (3 Bft) 100,00 %
02.02.2023 01:00 7,4 C 6,7 C 3,3 C 89 % 1021,3 hPa 0,0 l/m 0 min 0 min 0 W/m 25,7 km/h (4 Bft) 100,00 %
02.02.2023 01:02 7,4 C 6,7 C 3,3 C 89 % 1021,3 hPa 0,0 l/m 0 min 0 min 0 W/m 22,5 km/h (4 Bft) 95,74 %
02.02.2023 01:04 7,4 C 6,7 C 3,3 C 89 % 1021,4 hPa 0,0 l/m 0 min 0 min 0 W/m 22,5 km/h (4 Bft) 95,65 %
02.02.2023 01:06 7,4 C 6,7 C 3,3 C 89 % 1021,4 hPa 0,0 l/m 0 min 0 min 0 W/m 12,9 km/h (3 Bft) 98,15 %
02.02.2023 01:08 7,4 C 6,7 C 3,3 C 89 % 1021,3 hPa 0,0 l/m 0 min 0 min 0 W/m 16,1 km/h (3 Bft) 97,87 %
02.02.2023 01:10 7,4 C 6,7 C 3,3 C 89 % 1021,3 hPa 0,0 l/m 0 min 0 min 0 W/m 9,7 km/h (2 Bft) 95,65 %
02.02.2023 01:12 7,3 C 6,7 C 3,3 C 89 % 1021,3 hPa 0,0 l/m 0 min 0 min 0 W/m 12,9 km/h (3 Bft) 97,87 %
02.02.2023 01:14 7,3 C 6,7 C 3,3 C 89 % 1021,3 hPa 0,0 l/m 0 min 0 min 0 W/m 16,1 km/h (3 Bft) 97,87 %
02.02.2023 01:16 7,3 C 6,7 C 3,3 C 89 % 1021,3 hPa 0,0 l/m 0 min 0 min 0 W/m 9,7 km/h (2 Bft) 97,87 %
02.02.2023 01:18 7,3 C 6,7 C 3,3 C 89 % 1021,3 hPa 0,0 l/m 0 min 0 min 0 W/m 12,9 km/h (3 Bft) 97,87 %
02.02.2023 01:20 7,3 C 6,7 C 3,3 C 89 % 1021,3 hPa 0,0 l/m 0 min 0 min 0 W/m 12,9 km/h (3 Bft) 100,00 %
02.02.2023 01:22 7,3 C 6,7 C 3,3 C 90 % 1021,2 hPa 0,0 l/m 0 min 0 min 0 W/m 16,1 km/h (3 Bft) 97,83 %
02.02.2023 01:24 7,3 C 6,7 C 3,3 C 90 % 1021,3 hPa 0,0 l/m 0 min 0 min 0 W/m 16,1 km/h (3 Bft) 100,00 %
02.02.2023 01:26 7,3 C 6,7 C 3,3 C 90 % 1021,2 hPa 0,0 l/m 0 min 0 min 0 W/m 12,9 km/h (3 Bft) 100,00 %
02.02.2023 01:28 7,3 C 6,7 C 3,3 C 90 % 1021,3 hPa 0,0 l/m 0 min 0 min 0 W/m 16,1 km/h (3 Bft) 100,00 %
02.02.2023 01:30 7,3 C 6,7 C 3,3 C 90 % 1021,3 hPa 0,0 l/m 0 min 2 min 0 W/m 19,3 km/h (3 Bft) 100,00 %
02.02.2023 01:32 7,3 C 6,7 C 3,3 C 90 % 1021,2 hPa 0,0 l/m 0 min 2 min 0 W/m 16,1 km/h (3 Bft) 97,87 %
02.02.2023 01:34 7,3 C 6,7 C 3,3 C 90 % 1021,3 hPa 0,0 l/m 0 min 0 min 0 W/m 16,1 km/h (3 Bft) 97,87 %
02.02.2023 01:36 7,3 C 6,7 C 2,8 C 90 % 1021,2 hPa 0,0 l/m 0 min 0 min 0 W/m 9,7 km/h (2 Bft) 95,65 %
02.02.2023 01:38 7,3 C 6,7 C 2,8 C 91 % 1021,2 hPa 0,0 l/m 0 min 0 min 0 W/m 16,1 km/h (3 Bft) 95,74 %
02.02.2023 01:40 7,3 C 6,7 C 2,8 C 91 % 1021,2 hPa 0,0 l/m 0 min 0 min 0 W/m 16,1 km/h (3 Bft) 93,62 %
02.02.2023 01:42 7,3 C 6,7 C 2,8 C 91 % 1021,2 hPa 0,0 l/m 0 min 0 min 0 W/m 19,3 km/h (3 Bft) 95,74 %
02.02.2023 01:44 7,3 C 6,7 C 2,8 C 91 % 1021,1 hPa 0,0 l/m 0 min 0 min 0 W/m 19,3 km/h (3 Bft) 95,74 %
02.02.2023 01:46 7,3 C 6,7 C 2,8 C 91 % 1021,3 hPa 0,0 l/m 0 min 0 min 0 W/m 16,1 km/h (3 Bft) 95,74 %
02.02.2023 01:48 7,3 C 6,7 C 2,8 C 91 % 1021,1 hPa 0,0 l/m 0 min 0 min 0 W/m 16,1 km/h (3 Bft) 93,48 %
02.02.2023 01:50 7,3 C 6,7 C 2,8 C 91 % 1021,2 hPa 0,0 l/m 0 min 0 min 0 W/m 12,9 km/h (3 Bft) 95,74 %
02.02.2023 01:52 7,3 C 6,7 C 3,3 C 91 % 1021,2 hPa 0,0 l/m 0 min 0 min 0 W/m 16,1 km/h (3 Bft) 95,74 %
02.02.2023 01:54 7,3 C 6,7 C 3,3 C 91 % 1021,2 hPa 0,0 l/m 0 min 0 min 0 W/m 16,1 km/h (3 Bft) 95,74 %
02.02.2023 01:56 7,3 C 6,7 C 3,3 C 91 % 1021,2 hPa 0,0 l/m 0 min 0 min 0 W/m 19,3 km/h (3 Bft) 93,62 %
02.02.2023 01:58 7,3 C 6,7 C 3,3 C 91 % 1021,2 hPa 0,0 l/m 0 min 0 min 0 W/m 16,1 km/h (3 Bft) 93,62 %
02.02.2023 02:00 7,3 C 6,7 C 3,3 C 91 % 1021,3 hPa 0,0 l/m 0 min 0 min 0 W/m 16,1 km/h (3 Bft) 93,62 %
02.02.2023 02:02 7,3 C 6,7 C 3,3 C 91 % 1021,3 hPa 0,0 l/m 0 min 0 min 0 W/m 16,1 km/h (3 Bft) 93,48 %
02.02.2023 02:04 7,3 C 6,7 C 3,3 C 91 % 1021,3 hPa 0,0 l/m 0 min 0 min 0 W/m 16,1 km/h (3 Bft) 95,74 %
02.02.2023 02:06 7,3 C 6,7 C 3,3 C 91 % 1021,3 hPa 0,0 l/m 0 min 0 min 0 W/m 12,9 km/h (3 Bft) 95,74 %
02.02.2023 02:08 7,3 C 6,7 C 3,3 C 91 % 1021,3 hPa 0,0 l/m 0 min 0 min 0 W/m 12,9 km/h (3 Bft) 95,74 %
02.02.2023 02:10 7,3 C 6,7 C 3,3 C 91 % 1021,4 hPa 0,0 l/m 0 min 0 min 0 W/m 16,1 km/h (3 Bft) 95,74 %
02.02.2023 02:17 7,3 C 6,7 C 3,3 C 92 % 1021,4 hPa 0,0 l/m 0 min 0 min 0 W/m 19,3 km/h (3 Bft) 98,39 %
02.02.2023 02:18 7,3 C 6,7 C 3,3 C 92 % 1021,4 hPa 0,0 l/m 0 min 0 min 0 W/m 9,7 km/h (2 Bft) 83,33 %
02.02.2023 02:20 7,3 C 6,7 C 3,3 C 92 % 1021,4 hPa 0,0 l/m 0 min 0 min 0 W/m 16,1 km/h (3 Bft) 97,87 %
02.02.2023 02:22 7,3 C 6,7 C 3,3 C 92 % 1021,4 hPa 0,0 l/m 0 min 0 min 0 W/m 19,3 km/h (3 Bft) 100,00 %
02.02.2023 02:24 7,3 C 6,7 C 3,3 C 92 % 1021,4 hPa 0,0 l/m 0 min 2 min 0 W/m 19,3 km/h (3 Bft) 100,00 %
02.02.2023 02:26 7,3 C 6,7 C 3,3 C 92 % 1021,5 hPa 0,0 l/m 0 min 2 min 0 W/m 25,7 km/h (4 Bft) 97,87 %
02.02.2023 02:28 7,3 C 6,7 C 3,3 C 92 % 1021,5 hPa 0,0 l/m 0 min 0 min 0 W/m 16,1 km/h (3 Bft) 97,87 %
02.02.2023 02:30 7,3 C 6,7 C 3,3 C 92 % 1021,4 hPa 0,0 l/m 0 min 0 min 0 W/m 16,1 km/h (3 Bft) 97,87 %
02.02.2023 02:32 7,3 C 6,7 C 3,3 C 92 % 1021,5 hPa 0,0 l/m 0 min 0 min 0 W/m 19,3 km/h (3 Bft) 100,00 %
02.02.2023 02:34 7,3 C 6,7 C 3,3 C 92 % 1021,6 hPa 0,0 l/m 0 min 0 min 0 W/m 16,1 km/h (3 Bft) 100,00 %
02.02.2023 02:36 7,3 C 6,7 C 3,3 C 92 % 1021,4 hPa 0,0 l/m 0 min 0 min 0 W/m 16,1 km/h (3 Bft) 97,87 %
02.02.2023 02:38 7,3 C 6,7 C 3,3 C 92 % 1021,5 hPa 0,0 l/m 0 min 0 min 0 W/m 16,1 km/h (3 Bft) 97,87 %
02.02.2023 02:40 7,3 C 6,7 C 3,3 C 92 % 1021,4 hPa 0,0 l/m 0 min 0 min 0 W/m 16,1 km/h (3 Bft) 93,62 %
02.02.2023 02:42 7,3 C 6,7 C 3,3 C 92 % 1021,5 hPa 0,0 l/m 0 min 0 min 0 W/m 16,1 km/h (3 Bft) 97,87 %
02.02.2023 02:44 7,3 C 6,7 C 3,3 C 92 % 1021,5 hPa 0,0 l/m 0 min 0 min 0 W/m 12,9 km/h (3 Bft) 95,74 %
02.02.2023 02:46 7,3 C 6,7 C 3,3 C 92 % 1021,5 hPa 0,0 l/m 0 min 0 min 0 W/m 16,1 km/h (3 Bft) 97,83 %
02.02.2023 02:48 7,3 C 6,7 C 3,3 C 92 % 1021,6 hPa 0,0 l/m 0 min 0 min 0 W/m 16,1 km/h (3 Bft) 95,74 %
02.02.2023 02:50 7,3 C 6,7 C 3,3 C 92 % 1021,6 hPa 0,0 l/m 0 min 0 min 0 W/m 16,1 km/h (3 Bft) 97,87 %
02.02.2023 02:52 7,3 C 6,7 C 3,3 C 92 % 1021,6 hPa 0,0 l/m 0 min 0 min 0 W/m 16,1 km/h (3 Bft) 97,87 %
02.02.2023 02:54 7,3 C 6,7 C 3,3 C 92 % 1021,8 hPa 0,0 l/m 0 min 0 min 0 W/m 19,3 km/h (3 Bft) 93,62 %
02.02.2023 02:56 7,4 C 6,7 C 3,3 C 92 % 1021,7 hPa 0,0 l/m 0 min 0 min 0 W/m 19,3 km/h (3 Bft) 95,74 %
02.02.2023 02:58 7,4 C 6,7 C 3,3 C 92 % 1021,6 hPa 0,0 l/m 0 min 0 min 0 W/m 16,1 km/h (3 Bft) 97,87 %
02.02.2023 03:00 7,4 C 6,7 C 3,3 C 92 % 1021,6 hPa 0,0 l/m 0 min 0 min 0 W/m 16,1 km/h (3 Bft) 95,65 %
02.02.2023 03:02 7,4 C 6,7 C 3,3 C 92 % 1021,6 hPa 0,0 l/m 0 min 0 min 0 W/m 16,1 km/h (3 Bft) 93,62 %
02.02.2023 03:04 7,3 C 6,7 C 3,3 C 92 % 1021,6 hPa 0,0 l/m 0 min 0 min 0 W/m 19,3 km/h (3 Bft) 93,62 %
02.02.2023 03:06 7,4 C 6,7 C 3,3 C 92 % 1021,5 hPa 0,0 l/m 0 min 0 min 0 W/m 19,3 km/h (3 Bft) 93,22 %
02.02.2023 03:08 7,4 C 6,7 C 3,3 C 92 % 1021,6 hPa 0,0 l/m 0 min 0 min 0 W/m 19,3 km/h (3 Bft) 94,29 %
02.02.2023 03:10 7,3 C 6,7 C 3,3 C 92 % 1021,6 hPa 0,0 l/m 0 min 0 min 0 W/m 19,3 km/h (3 Bft) 95,74 %
02.02.2023 03:12 7,3 C 6,7 C 3,3 C 92 % 1021,5 hPa 0,0 l/m 0 min 0 min 0 W/m 16,1 km/h (3 Bft) 100,00 %
02.02.2023 03:14 7,3 C 6,7 C 3,3 C 92 % 1021,5 hPa 0,0 l/m 0 min 0 min 0 W/m 9,7 km/h (2 Bft) 91,49 %
02.02.2023 03:16 7,3 C 6,7 C 3,3 C 92 % 1021,5 hPa 0,0 l/m 0 min 0 min 0 W/m 16,1 km/h (3 Bft) 100,00 %
02.02.2023 03:18 7,3 C 6,7 C 3,3 C 92 % 1021,4 hPa 0,0 l/m 0 min 0 min 0 W/m 16,1 km/h (3 Bft) 100,00 %
02.02.2023 03:20 7,3 C 6,7 C 3,3 C 92 % 1021,4 hPa 0,0 l/m 0 min 2 min 0 W/m 9,7 km/h (2 Bft) 97,87 %
02.02.2023 03:22 7,3 C 6,7 C 3,3 C 92 % 1021,4 hPa 0,0 l/m 0 min 2 min 0 W/m 19,3 km/h (3 Bft) 100,00 %
02.02.2023 03:24 7,3 C 6,7 C 3,3 C 92 % 1021,5 hPa 0,0 l/m 0 min 2 min 0 W/m 19,3 km/h (3 Bft) 100,00 %
02.02.2023 03:26 7,3 C 6,7 C 2,8 C 92 % 1021,4 hPa 0,0 l/m 0 min 2 min 0 W/m 12,9 km/h (3 Bft) 97,83 %
02.02.2023 03:28 7,3 C 6,7 C 2,8 C 92 % 1021,4 hPa 0,0 l/m 0 min 0 min 0 W/m 12,9 km/h (3 Bft) 100,00 %
02.02.2023 03:30 7,2 C 6,7 C 2,8 C 92 % 1021,4 hPa 0,0 l/m 0 min 0 min 0 W/m 12,9 km/h (3 Bft) 100,00 %
02.02.2023 03:32 7,2 C 6,7 C 2,8 C 92 % 1021,4 hPa 0,0 l/m 0 min 2 min 0 W/m 12,9 km/h (3 Bft) 97,87 %
02.02.2023 03:34 7,2 C 6,7 C 2,8 C 92 % 1021,4 hPa 0,0 l/m 0 min 2 min 0 W/m 6,4 km/h (2 Bft) 100,00 %
02.02.2023 03:36 7,2 C 6,7 C 2,8 C 93 % 1021,5 hPa 0,0 l/m 0 min 2 min 0 W/m 12,9 km/h (3 Bft) 100,00 %
02.02.2023 03:38 7,2 C 6,7 C 2,8 C 93 % 1021,4 hPa 0,0 l/m 0 min 2 min 0 W/m 12,9 km/h (3 Bft) 97,83 %
02.02.2023 03:40 7,2 C 6,7 C 2,8 C 93 % 1021,5 hPa 0,0 l/m 0 min 2 min 0 W/m 22,5 km/h (4 Bft) 100,00 %
02.02.2023 03:42 7,2 C 6,7 C 2,8 C 93 % 1021,4 hPa 0,0 l/m 0 min 2 min 0 W/m 9,7 km/h (2 Bft) 100,00 %
02.02.2023 03:44 7,2 C 6,7 C 2,8 C 93 % 1021,4 hPa 0,0 l/m 0 min 0 min 0 W/m 12,9 km/h (3 Bft) 97,87 %
02.02.2023 03:46 7,2 C 6,7 C 2,8 C 93 % 1021,5 hPa 0,0 l/m 0 min 0 min 0 W/m 12,9 km/h (3 Bft) 100,00 %
02.02.2023 03:48 7,2 C 6,7 C 2,8 C 93 % 1021,4 hPa 0,0 l/m 0 min 2 min 0 W/m 12,9 km/h (3 Bft) 97,87 %
02.02.2023 03:50 7,2 C 6,7 C 2,8 C 93 % 1021,4 hPa 0,0 l/m 0 min 2 min 0 W/m 12,9 km/h (3 Bft) 97,87 %
02.02.2023 03:52 7,2 C 6,7 C 2,8 C 93 % 1021,4 hPa 0,0 l/m 0 min 2 min 0 W/m 12,9 km/h (3 Bft) 100,00 %
02.02.2023 03:54 7,2 C 6,7 C 2,8 C 93 % 1021,4 hPa 0,0 l/m 0 min 2 min 0 W/m 16,1 km/h (3 Bft) 97,87 %
02.02.2023 03:56 7,1 C 6,7 C 2,8 C 93 % 1021,4 hPa 0,2 l/m 0 min 2 min 0 W/m 12,9 km/h (3 Bft) 97,87 %
02.02.2023 03:58 7,1 C 6,7 C 2,8 C 93 % 1021,5 hPa 0,0 l/m 0 min 2 min 0 W/m 16,1 km/h (3 Bft) 100,00 %
02.02.2023 04:00 7,2 C 6,7 C 2,8 C 93 % 1021,6 hPa 0,0 l/m 0 min 2 min 0 W/m 16,1 km/h (3 Bft) 97,87 %
02.02.2023 04:02 7,2 C 6,7 C 2,8 C 93 % 1021,5 hPa 0,0 l/m 0 min 2 min 0 W/m 12,9 km/h (3 Bft) 95,74 %
02.02.2023 04:04 7,2 C 6,7 C 2,8 C 93 % 1021,5 hPa 0,0 l/m 0 min 2 min 0 W/m 12,9 km/h (3 Bft) 100,00 %
02.02.2023 04:06 7,2 C 6,7 C 2,8 C 93 % 1021,6 hPa 0,0 l/m 0 min 2 min 0 W/m 16,1 km/h (3 Bft) 98,31 %
02.02.2023 04:08 7,2 C 6,7 C 2,8 C 93 % 1021,5 hPa 0,0 l/m 0 min 0 min 0 W/m 12,9 km/h (3 Bft) 94,29 %
02.02.2023 04:10 7,2 C 6,7 C 2,8 C 93 % 1021,5 hPa 0,0 l/m 0 min 0 min 0 W/m 16,1 km/h (3 Bft) 97,87 %
02.02.2023 04:12 7,2 C 6,7 C 2,8 C 93 % 1021,5 hPa 0,0 l/m 0 min 2 min 0 W/m 12,9 km/h (3 Bft) 95,74 %
02.02.2023 04:14 7,2 C 6,7 C 2,8 C 93 % 1021,5 hPa 0,0 l/m 0 min 2 min 0 W/m 16,1 km/h (3 Bft) 91,49 %
02.02.2023 04:16 7,2 C 6,7 C 2,8 C 93 % 1021,5 hPa 0,0 l/m 0 min 2 min 0 W/m 16,1 km/h (3 Bft) 95,74 %
02.02.2023 04:18 7,2 C 6,7 C 2,8 C 93 % 1021,6 hPa 0,0 l/m 0 min 2 min 0 W/m 16,1 km/h (3 Bft) 97,83 %
02.02.2023 04:23 7,2 C 6,7 C 2,8 C 93 % 1021,5 hPa 0,0 l/m 0 min 5 min 0 W/m 12,9 km/h (3 Bft) 100,00 %
02.02.2023 04:24 7,2 C 6,7 C 2,8 C 93 % 1021,5 hPa 0,0 l/m 0 min 1 min 0 W/m 12,9 km/h (3 Bft) 100,00 %
02.02.2023 04:26 7,2 C 6,7 C 2,8 C 93 % 1021,6 hPa 0,0 l/m 0 min 2 min 0 W/m 19,3 km/h (3 Bft) 91,49 %
02.02.2023 04:28 7,2 C 6,7 C 2,8 C 93 % 1021,6 hPa 0,0 l/m 0 min 2 min 0 W/m 19,3 km/h (3 Bft) 95,74 %
02.02.2023 04:30 7,2 C 6,7 C 2,8 C 93 % 1021,6 hPa 0,0 l/m 0 min 2 min 0 W/m 12,9 km/h (3 Bft) 97,83 %
02.02.2023 04:32 7,2 C 6,7 C 2,8 C 93 % 1021,5 hPa 0,0 l/m 0 min 2 min 0 W/m 16,1 km/h (3 Bft) 91,49 %
02.02.2023 04:34 7,2 C 6,7 C 2,8 C 93 % 1021,6 hPa 0,0 l/m 0 min 2 min 0 W/m 19,3 km/h (3 Bft) 89,36 %
02.02.2023 04:36 7,2 C 6,7 C 2,8 C 93 % 1021,6 hPa 0,0 l/m 0 min 2 min 0 W/m 12,9 km/h (3 Bft) 87,23 %
02.02.2023 04:38 7,3 C 6,7 C 2,8 C 93 % 1021,6 hPa 0,0 l/m 0 min 2 min 0 W/m 16,1 km/h (3 Bft) 93,62 %
02.02.2023 04:40 7,3 C 6,7 C 2,8 C 93 % 1021,6 hPa 0,0 l/m 0 min 0 min 0 W/m 12,9 km/h (3 Bft) 89,36 %
02.02.2023 04:42 7,3 C 6,7 C 2,8 C 93 % 1021,7 hPa 0,0 l/m 0 min 2 min 0 W/m 22,5 km/h (4 Bft) 91,49 %
02.02.2023 04:44 7,3 C 6,7 C 2,8 C 93 % 1021,6 hPa 0,0 l/m 0 min 0 min 0 W/m 16,1 km/h (3 Bft) 91,30 %
02.02.2023 04:46 7,3 C 6,7 C 3,3 C 92 % 1021,7 hPa 0,0 l/m 0 min 2 min 0 W/m 22,5 km/h (4 Bft) 91,49 %
02.02.2023 04:48 7,3 C 6,7 C 3,3 C 92 % 1021,6 hPa 0,0 l/m 0 min 2 min 0 W/m 16,1 km/h (3 Bft) 93,62 %
02.02.2023 04:50 7,4 C 6,7 C 3,3 C 92 % 1021,6 hPa 0,0 l/m 0 min 2 min 0 W/m 16,1 km/h (3 Bft) 91,49 %
02.02.2023 04:52 7,4 C 6,7 C 3,3 C 92 % 1021,6 hPa 0,0 l/m 0 min 0 min 0 W/m 12,9 km/h (3 Bft) 97,87 %
02.02.2023 04:54 7,4 C 6,7 C 3,3 C 92 % 1021,6 hPa 0,0 l/m 0 min 0 min 0 W/m 6,4 km/h (2 Bft) 93,62 %
02.02.2023 04:56 7,4 C 6,7 C 3,3 C 92 % 1021,6 hPa 0,0 l/m 0 min 2 min 0 W/m 22,5 km/h (4 Bft) 80,43 %
02.02.2023 04:58 7,4 C 6,7 C 3,3 C 92 % 1021,6 hPa 0,0 l/m 0 min 2 min 0 W/m 12,9 km/h (3 Bft) 87,23 %
02.02.2023 05:00 7,4 C 6,7 C 3,3 C 92 % 1021,7 hPa 0,0 l/m 0 min 0 min 0 W/m 12,9 km/h (3 Bft) 87,23 %
02.02.2023 05:02 7,4 C 6,7 C 3,3 C 92 % 1021,6 hPa 0,0 l/m 0 min 2 min 0 W/m 19,3 km/h (3 Bft) 65,96 %
02.02.2023 05:04 7,4 C 6,7 C 3,3 C 92 % 1021,7 hPa 0,0 l/m 0 min 2 min 0 W/m 19,3 km/h (3 Bft) 78,72 %
02.02.2023 05:06 7,4 C 6,7 C 3,3 C 92 % 1021,7 hPa 0,0 l/m 0 min 0 min 0 W/m 12,9 km/h (3 Bft) 62,07 %
02.02.2023 05:08 7,4 C 6,7 C 3,3 C 92 % 1021,6 hPa 0,0 l/m 0 min 0 min 0 W/m 16,1 km/h (3 Bft) 66,67 %
02.02.2023 05:10 7,4 C 6,7 C 3,3 C 92 % 1021,7 hPa 0,0 l/m 0 min 0 min 0 W/m 3,2 km/h (1 Bft) 69,57 %
02.02.2023 05:12 7,4 C 6,7 C 3,3 C 92 % 1021,7 hPa 0,0 l/m 0 min 0 min 0 W/m 12,9 km/h (3 Bft) 72,34 %
02.02.2023 05:14 7,4 C 6,7 C 3,3 C 92 % 1021,7 hPa 0,0 l/m 0 min 0 min 0 W/m 12,9 km/h (3 Bft) 82,98 %
02.02.2023 05:16 7,4 C 6,7 C 3,3 C 92 % 1021,7 hPa 0,0 l/m 0 min 0 min 0 W/m 12,9 km/h (3 Bft) 82,98 %
02.02.2023 05:18 7,4 C 6,7 C 3,3 C 92 % 1021,7 hPa 0,0 l/m 0 min 0 min 0 W/m 19,3 km/h (3 Bft) 87,23 %
02.02.2023 05:20 7,4 C 6,7 C 3,3 C 91 % 1021,7 hPa 0,0 l/m 0 min 0 min 0 W/m 16,1 km/h (3 Bft) 74,47 %
02.02.2023 05:22 7,4 C 6,7 C 3,3 C 91 % 1021,6 hPa 0,0 l/m 0 min 0 min 0 W/m 16,1 km/h (3 Bft) 95,65 %
02.02.2023 05:24 7,4 C 6,7 C 3,9 C 91 % 1021,6 hPa 0,0 l/m 0 min 0 min 0 W/m 12,9 km/h (3 Bft) 100,00 %
02.02.2023 05:26 7,4 C 6,7 C 3,9 C 91 % 1021,7 hPa 0,0 l/m 0 min 0 min 0 W/m 12,9 km/h (3 Bft) 95,74 %
02.02.2023 05:28 7,4 C 6,7 C 3,3 C 91 % 1021,7 hPa 0,0 l/m 0 min 0 min 0 W/m 16,1 km/h (3 Bft) 97,87 %
02.02.2023 05:30 7,4 C 6,7 C 3,9 C 91 % 1021,7 hPa 0,0 l/m 0 min 0 min 0 W/m 12,9 km/h (3 Bft) 97,87 %
02.02.2023 05:32 7,4 C 6,7 C 3,9 C 91 % 1021,7 hPa 0,0 l/m 0 min 0 min 0 W/m 12,9 km/h (3 Bft) 100,00 %
02.02.2023 05:34 7,4 C 6,7 C 3,9 C 91 % 1021,8 hPa 0,0 l/m 0 min 0 min 0 W/m 25,7 km/h (4 Bft) 100,00 %
02.02.2023 05:36 7,5 C 6,7 C 3,9 C 91 % 1021,9 hPa 0,0 l/m 0 min 0 min 0 W/m 22,5 km/h (4 Bft) 97,83 %
02.02.2023 05:38 7,5 C 6,7 C 3,9 C 91 % 1021,8 hPa 0,0 l/m 0 min 0 min 0 W/m 12,9 km/h (3 Bft) 95,74 %
02.02.2023 05:40 7,5 C 6,7 C 3,9 C 91 % 1021,9 hPa 0,0 l/m 0 min 0 min 0 W/m 16,1 km/h (3 Bft) 97,87 %
02.02.2023 05:42 7,5 C 6,7 C 3,9 C 91 % 1021,9 hPa 0,0 l/m 0 min 2 min 0 W/m 19,3 km/h (3 Bft) 100,00 %
02.02.2023 05:44 7,6 C 6,7 C 3,9 C 91 % 1021,9 hPa 0,0 l/m 0 min 0 min 0 W/m 19,3 km/h (3 Bft) 91,49 %
02.02.2023 05:46 7,6 C 6,7 C 3,9 C 91 % 1021,9 hPa 0,0 l/m 0 min 0 min 0 W/m 19,3 km/h (3 Bft) 97,87 %
02.02.2023 05:48 7,6 C 6,7 C 3,9 C 91 % 1021,9 hPa 0,0 l/m 0 min 0 min 0 W/m 12,9 km/h (3 Bft) 100,00 %
02.02.2023 05:50 7,6 C 6,7 C 3,3 C 91 % 1021,9 hPa 0,0 l/m 0 min 0 min 0 W/m 19,3 km/h (3 Bft) 100,00 %
02.02.2023 05:52 7,6 C 6,7 C 3,3 C 91 % 1021,9 hPa 0,0 l/m 0 min 0 min 0 W/m 16,1 km/h (3 Bft) 100,00 %
02.02.2023 05:54 7,6 C 6,7 C 3,3 C 91 % 1021,9 hPa 0,0 l/m 0 min 0 min 0 W/m 12,9 km/h (3 Bft) 74,47 %
02.02.2023 05:56 7,6 C 6,7 C 3,3 C 91 % 1021,9 hPa 0,0 l/m 0 min 0 min 0 W/m 12,9 km/h (3 Bft) 78,95 %
02.02.2023 05:58 7,5 C 6,7 C 3,3 C 91 % 1021,9 hPa 0,0 l/m 0 min 0 min 0 W/m 12,9 km/h (3 Bft) 100,00 %
02.02.2023 06:00 7,5 C 6,7 C 3,3 C 91 % 1022,0 hPa 0,0 l/m 0 min 0 min 0 W/m 12,9 km/h (3 Bft) 97,87 %
02.02.2023 06:02 7,4 C 6,7 C 3,3 C 91 % 1021,9 hPa 0,0 l/m 0 min 0 min 0 W/m 6,4 km/h (2 Bft) 100,00 %
02.02.2023 06:04 7,4 C 6,7 C 3,3 C 91 % 1022,0 hPa 0,0 l/m 0 min 2 min 0 W/m 12,9 km/h (3 Bft) 100,00 %
02.02.2023 06:07 7,4 C 6,7 C 3,3 C 91 % 1021,9 hPa 0,0 l/m 0 min 3 min 0 W/m 19,3 km/h (3 Bft) 97,18 %
02.02.2023 06:08 7,3 C 6,7 C 3,3 C 91 % 1021,9 hPa 0,0 l/m 0 min 0 min 0 W/m 9,7 km/h (2 Bft) 100,00 %
02.02.2023 06:10 7,3 C 6,7 C 3,3 C 92 % 1022,0 hPa 0,0 l/m 0 min 0 min 0 W/m 12,9 km/h (3 Bft) 100,00 %
02.02.2023 06:12 7,3 C 6,7 C 3,3 C 92 % 1022,0 hPa 0,0 l/m 0 min 2 min 0 W/m 12,9 km/h (3 Bft) 100,00 %
02.02.2023 06:14 7,3 C 6,7 C 3,3 C 92 % 1022,0 hPa 0,0 l/m 0 min 2 min 0 W/m 22,5 km/h (4 Bft) 97,83 %
02.02.2023 06:16 7,3 C 6,7 C 3,3 C 92 % 1021,9 hPa 0,0 l/m 0 min 0 min 0 W/m 16,1 km/h (3 Bft) 97,87 %
02.02.2023 06:18 7,3 C 6,7 C 3,3 C 92 % 1021,9 hPa 0,0 l/m 0 min 0 min 0 W/m 12,9 km/h (3 Bft) 100,00 %
02.02.2023 06:20 7,2 C 6,7 C 3,3 C 92 % 1021,8 hPa 0,0 l/m 0 min 0 min 0 W/m 19,3 km/h (3 Bft) 100,00 %
02.02.2023 06:22 7,2 C 6,7 C 3,3 C 92 % 1021,8 hPa 0,0 l/m 0 min 0 min 0 W/m 16,1 km/h (3 Bft) 100,00 %
02.02.2023 06:24 7,2 C 6,7 C 3,3 C 92 % 1021,7 hPa 0,0 l/m 0 min 0 min 0 W/m 16,1 km/h (3 Bft) 97,87 %
02.02.2023 06:26 7,2 C 6,7 C 3,3 C 92 % 1021,7 hPa 0,0 l/m 0 min 0 min 0 W/m 19,3 km/h (3 Bft) 95,74 %
02.02.2023 06:28 7,2 C 6,7 C 3,3 C 92 % 1021,7 hPa 0,0 l/m 0 min 0 min 0 W/m 12,9 km/h (3 Bft) 97,83 %
02.02.2023 06:30 7,2 C 6,7 C 3,3 C 92 % 1021,8 hPa 0,0 l/m 0 min 0 min 0 W/m 19,3 km/h (3 Bft) 95,74 %
02.02.2023 06:32 7,2 C 6,7 C 3,3 C 92 % 1021,7 hPa 0,0 l/m 0 min 0 min 0 W/m 12,9 km/h (3 Bft) 93,62 %
02.02.2023 06:34 7,2 C 6,7 C 3,3 C 92 % 1021,8 hPa 0,0 l/m 0 min 0 min 0 W/m 16,1 km/h (3 Bft) 95,74 %
02.02.2023 06:36 7,2 C 6,7 C 3,3 C 92 % 1021,7 hPa 0,0 l/m 0 min 0 min 0 W/m 16,1 km/h (3 Bft) 95,74 %
02.02.2023 06:38 7,2 C 6,7 C 3,3 C 92 % 1021,7 hPa 0,0 l/m 0 min 0 min 0 W/m 16,1 km/h (3 Bft) 97,87 %
02.02.2023 06:40 7,2 C 6,7 C 3,3 C 92 % 1021,6 hPa 0,0 l/m 0 min 0 min 0 W/m 19,3 km/h (3 Bft) 95,65 %
02.02.2023 06:42 7,2 C 6,7 C 3,3 C 92 % 1021,6 hPa 0,0 l/m 0 min 0 min 0 W/m 19,3 km/h (3 Bft) 95,74 %
02.02.2023 06:44 7,3 C 6,7 C 3,3 C 92 % 1021,6 hPa 0,0 l/m 0 min 0 min 0 W/m 12,9 km/h (3 Bft) 95,74 %
02.02.2023 06:46 7,3 C 6,7 C 3,3 C 92 % 1021,6 hPa 0,0 l/m 0 min 0 min 0 W/m 19,3 km/h (3 Bft) 95,74 %
02.02.2023 06:48 7,3 C 6,7 C 3,3 C 92 % 1021,8 hPa 0,0 l/m 0 min 0 min 0 W/m 19,3 km/h (3 Bft) 91,49 %
02.02.2023 06:50 7,3 C 6,7 C 3,3 C 92 % 1021,8 hPa 0,0 l/m 0 min 0 min 0 W/m 12,9 km/h (3 Bft) 95,74 %
02.02.2023 06:52 7,3 C 6,7 C 3,3 C 92 % 1021,8 hPa 0,0 l/m 0 min 0 min 0 W/m 22,5 km/h (4 Bft) 95,74 %
02.02.2023 06:54 7,3 C 6,7 C 3,3 C 92 % 1021,8 hPa 0,0 l/m 0 min 0 min 0 W/m 16,1 km/h (3 Bft) 95,65 %
02.02.2023 06:56 7,3 C 6,7 C 3,3 C 92 % 1021,8 hPa 0,0 l/m 0 min 0 min 0 W/m 16,1 km/h (3 Bft) 97,87 %
02.02.2023 06:58 7,3 C 6,7 C 3,3 C 92 % 1021,9 hPa 0,0 l/m 0 min 0 min 0 W/m 16,1 km/h (3 Bft) 95,74 %
02.02.2023 07:00 7,2 C 6,7 C 3,3 C 92 % 1021,9 hPa 0,0 l/m 0 min 0 min 0 W/m 16,1 km/h (3 Bft) 89,36 %
02.02.2023 07:02 7,2 C 6,7 C 3,3 C 92 % 1022,0 hPa 0,0 l/m 0 min 0 min 0 W/m 22,5 km/h (4 Bft) 95,74 %
02.02.2023 07:04 7,2 C 6,7 C 3,3 C 92 % 1022,0 hPa 0,0 l/m 0 min 0 min 0 W/m 16,1 km/h (3 Bft) 95,74 %
02.02.2023 07:06 7,2 C 6,7 C 3,3 C 92 % 1022,0 hPa 0,0 l/m 0 min 0 min 0 W/m 19,3 km/h (3 Bft) 88,46 %
02.02.2023 07:08 7,3 C 6,7 C 3,3 C 92 % 1022,0 hPa 0,0 l/m 0 min 0 min 0 W/m 12,9 km/h (3 Bft) 97,56 %
02.02.2023 07:10 7,2 C 6,7 C 3,3 C 92 % 1022,0 hPa 0,0 l/m 0 min 0 min 0 W/m 16,1 km/h (3 Bft) 97,87 %
02.02.2023 07:12 7,3 C 6,7 C 3,3 C 92 % 1022,0 hPa 0,0 l/m 0 min 0 min 0 W/m 19,3 km/h (3 Bft) 97,87 %
02.02.2023 07:14 7,3 C 6,7 C 3,3 C 92 % 1022,0 hPa 0,0 l/m 0 min 0 min 0 W/m 19,3 km/h (3 Bft) 100,00 %
02.02.2023 07:16 7,2 C 6,7 C 3,3 C 92 % 1022,1 hPa 0,0 l/m 0 min 0 min 0 W/m 22,5 km/h (4 Bft) 68,09 %
02.02.2023 07:18 7,3 C 6,7 C 3,3 C 92 % 1022,1 hPa 0,0 l/m 0 min 0 min 0 W/m 19,3 km/h (3 Bft) 85,71 %
02.02.2023 07:20 7,2 C 6,7 C 3,3 C 92 % 1022,2 hPa 0,0 l/m 0 min 0 min 0 W/m 16,1 km/h (3 Bft) 93,48 %
02.02.2023 07:22 7,2 C 6,7 C 3,3 C 92 % 1022,2 hPa 0,0 l/m 0 min 0 min 0 W/m 19,3 km/h (3 Bft) 97,87 %
02.02.2023 07:24 7,2 C 6,7 C 3,3 C 92 % 1022,2 hPa 0,0 l/m 0 min 0 min 0 W/m 16,1 km/h (3 Bft) 97,87 %
02.02.2023 07:26 7,2 C 6,7 C 3,3 C 93 % 1022,2 hPa 0,0 l/m 0 min 2 min 0 W/m 12,9 km/h (3 Bft) 97,87 %
02.02.2023 07:28 7,2 C 6,7 C 3,3 C 93 % 1022,1 hPa 0,0 l/m 0 min 0 min 0 W/m 12,9 km/h (3 Bft) 97,87 %
02.02.2023 07:30 7,2 C 6,7 C 3,3 C 93 % 1022,1 hPa 0,0 l/m 0 min 0 min 0 W/m 19,3 km/h (3 Bft) 100,00 %
02.02.2023 07:32 7,2 C 6,7 C 3,3 C 93 % 1022,2 hPa 0,0 l/m 0 min 0 min 0 W/m 19,3 km/h (3 Bft) 97,87 %
02.02.2023 07:34 7,2 C 6,7 C 3,3 C 93 % 1022,2 hPa 0,0 l/m 0 min 0 min 0 W/m 19,3 km/h (3 Bft) 97,83 %
02.02.2023 07:36 7,2 C 6,7 C 3,3 C 93 % 1022,2 hPa 0,0 l/m 0 min 0 min 0 W/m 19,3 km/h (3 Bft) 95,74 %
02.02.2023 07:38 7,1 C 6,7 C 3,3 C 93 % 1022,2 hPa 0,0 l/m 0 min 0 min 0 W/m 22,5 km/h (4 Bft) 97,87 %
02.02.2023 07:40 7,1 C 6,7 C 3,3 C 93 % 1022,3 hPa 0,0 l/m 0 min 0 min 0 W/m 16,1 km/h (3 Bft) 91,49 %
02.02.2023 07:42 7,1 C 6,1 C 3,3 C 93 % 1022,2 hPa 0,0 l/m 0 min 0 min 0 W/m 19,3 km/h (3 Bft) 97,87 %
02.02.2023 07:44 7,1 C 6,7 C 3,3 C 93 % 1022,2 hPa 0,0 l/m 0 min 0 min 0 W/m 29,0 km/h (5 Bft) 95,74 %
02.02.2023 07:46 7,1 C 6,7 C 3,3 C 93 % 1022,2 hPa 0,0 l/m 0 min 0 min 0 W/m 19,3 km/h (3 Bft) 58,70 %
02.02.2023 07:48 7,1 C 6,1 C 3,3 C 93 % 1022,3 hPa 0,0 l/m 0 min 0 min 0 W/m 16,1 km/h (3 Bft) 76,60 %
02.02.2023 07:50 7,1 C 6,1 C 3,3 C 93 % 1022,3 hPa 0,0 l/m 0 min 0 min 0 W/m 12,9 km/h (3 Bft) 85,11 %
02.02.2023 07:52 7,1 C 6,1 C 3,3 C 93 % 1022,4 hPa 0,0 l/m 0 min 0 min 0 W/m 19,3 km/h (3 Bft) 95,74 %
02.02.2023 07:54 7,1 C 6,1 C 3,3 C 93 % 1022,4 hPa 0,0 l/m 0 min 0 min 0 W/m 12,9 km/h (3 Bft) 89,36 %
02.02.2023 07:56 7,1 C 6,1 C 3,3 C 93 % 1022,3 hPa 0,0 l/m 0 min 0 min 0 W/m 16,1 km/h (3 Bft) 87,23 %
02.02.2023 07:58 7,1 C 6,1 C 3,3 C 94 % 1022,2 hPa 0,0 l/m 0 min 0 min 0 W/m 12,9 km/h (3 Bft) 54,35 %
02.02.2023 08:00 7,1 C 6,1 C 3,3 C 94 % 1022,3 hPa 0,0 l/m 0 min 0 min 0 W/m 16,1 km/h (3 Bft) 78,72 %
02.02.2023 08:02 7,1 C 6,1 C 3,3 C 94 % 1022,3 hPa 0,0 l/m 0 min 0 min 0 W/m 16,1 km/h (3 Bft) 97,87 %
02.02.2023 08:04 7,1 C 6,1 C 3,3 C 94 % 1022,4 hPa 0,0 l/m 0 min 0 min 0 W/m 16,1 km/h (3 Bft) 95,74 %
02.02.2023 08:06 7,1 C 6,1 C 3,3 C 94 % 1022,5 hPa 0,0 l/m 0 min 0 min 0 W/m 22,5 km/h (4 Bft) 97,87 %
02.02.2023 08:08 7,1 C 6,1 C 3,3 C 94 % 1022,5 hPa 0,0 l/m 0 min 0 min 0 W/m 16,1 km/h (3 Bft) 95,74 %
02.02.2023 08:10 7,1 C 6,1 C 3,3 C 94 % 1022,5 hPa 0,0 l/m 0 min 0 min 0 W/m 19,3 km/h (3 Bft) 95,74 %
02.02.2023 08:12 7,1 C 6,7 C 3,3 C 94 % 1022,5 hPa 0,0 l/m 0 min 0 min 0 W/m 16,1 km/h (3 Bft) 95,65 %
02.02.2023 08:14 7,1 C 6,1 C 3,3 C 94 % 1022,5 hPa 0,0 l/m 0 min 0 min 0 W/m 25,7 km/h (4 Bft) 97,87 %
02.02.2023 08:16 7,1 C 6,7 C 3,3 C 94 % 1022,5 hPa 0,0 l/m 0 min 0 min 0 W/m 16,1 km/h (3 Bft) 97,87 %
02.02.2023 08:18 7,1 C 6,7 C 3,3 C 94 % 1022,5 hPa 0,0 l/m 0 min 0 min 0 W/m 16,1 km/h (3 Bft) 93,62 %
02.02.2023 08:20 7,1 C 6,7 C 3,3 C 94 % 1022,4 hPa 0,0 l/m 0 min 0 min 0 W/m 12,9 km/h (3 Bft) 95,74 %
02.02.2023 08:22 7,1 C 6,1 C 3,3 C 94 % 1022,5 hPa 0,0 l/m 0 min 0 min 0 W/m 12,9 km/h (3 Bft) 97,87 %
02.02.2023 08:24 7,1 C 6,7 C 3,3 C 94 % 1022,5 hPa 0,0 l/m 0 min 0 min 0 W/m 16,1 km/h (3 Bft) 97,83 %
02.02.2023 08:26 7,1 C 6,7 C 3,3 C 94 % 1022,4 hPa 0,0 l/m 0 min 0 min 0 W/m 19,3 km/h (3 Bft) 97,87 %
02.02.2023 08:28 7,1 C 6,7 C 3,3 C 94 % 1022,4 hPa 0,0 l/m 0 min 0 min 0 W/m 9,7 km/h (2 Bft) 97,87 %
02.02.2023 08:30 7,1 C 6,7 C 3,3 C 94 % 1022,5 hPa 0,0 l/m 0 min 0 min 0 W/m 22,5 km/h (4 Bft) 95,74 %
02.02.2023 08:32 7,1 C 6,7 C 3,3 C 94 % 1022,5 hPa 0,0 l/m 0 min 0 min 0 W/m 16,1 km/h (3 Bft) 97,87 %
02.02.2023 08:34 7,1 C 6,7 C 3,3 C 94 % 1022,6 hPa 0,0 l/m 0 min 0 min 3 W/m 16,1 km/h (3 Bft) 97,87 %
02.02.2023 08:36 7,1 C 6,7 C 3,3 C 94 % 1022,5 hPa 0,0 l/m 0 min 0 min 3 W/m 12,9 km/h (3 Bft) 97,87 %
02.02.2023 08:38 7,1 C 6,7 C 3,3 C 94 % 1022,6 hPa 0,0 l/m 0 min 0 min 0 W/m 16,1 km/h (3 Bft) 54,35 %
02.02.2023 08:40 7,1 C 6,1 C 3,3 C 94 % 1022,6 hPa 0,0 l/m 0 min 0 min 1 W/m 16,1 km/h (3 Bft) 97,87 %
02.02.2023 08:42 7,1 C 6,1 C 3,3 C 94 % 1022,6 hPa 0,0 l/m 0 min 0 min 1 W/m 22,5 km/h (4 Bft) 97,87 %
02.02.2023 08:44 7,1 C 6,1 C 3,3 C 94 % 1022,5 hPa 0,0 l/m 0 min 0 min 5 W/m 16,1 km/h (3 Bft) 95,74 %
02.02.2023 08:46 7,1 C 6,7 C 3,3 C 94 % 1022,5 hPa 0,0 l/m 0 min 2 min 6 W/m 19,3 km/h (3 Bft) 95,74 %
02.02.2023 08:48 7,1 C 6,1 C 3,3 C 94 % 1022,6 hPa 0,0 l/m 0 min 2 min 7 W/m 19,3 km/h (3 Bft) 93,62 %
02.02.2023 08:50 7,1 C 6,7 C 3,3 C 94 % 1022,5 hPa 0,0 l/m 0 min 2 min 9 W/m 16,1 km/h (3 Bft) 95,65 %
02.02.2023 08:52 7,1 C 6,7 C 3,3 C 94 % 1022,6 hPa 0,0 l/m 0 min 2 min 9 W/m 12,9 km/h (3 Bft) 97,87 %
02.02.2023 08:54 7,1 C 6,1 C 3,3 C 94 % 1022,6 hPa 0,0 l/m 0 min 2 min 7 W/m 16,1 km/h (3 Bft) 100,00 %
02.02.2023 08:56 7,1 C 6,1 C 3,3 C 94 % 1022,5 hPa 0,0 l/m 0 min 2 min 7 W/m 16,1 km/h (3 Bft) 100,00 %
02.02.2023 08:58 7,1 C 6,1 C 2,8 C 94 % 1022,5 hPa 0,2 l/m 0 min 2 min 8 W/m 16,1 km/h (3 Bft) 97,87 %
02.02.2023 09:00 7,1 C 6,1 C 2,8 C 94 % 1022,5 hPa 0,0 l/m 0 min 2 min 11 W/m 16,1 km/h (3 Bft) 100,00 %
02.02.2023 09:02 7,1 C 6,1 C 2,8 C 94 % 1022,5 hPa 0,0 l/m 0 min 2 min 11 W/m 19,3 km/h (3 Bft) 97,87 %
02.02.2023 09:04 7,1 C 6,1 C 2,8 C 94 % 1022,6 hPa 0,0 l/m 0 min 2 min 10 W/m 12,9 km/h (3 Bft) 100,00 %
02.02.2023 09:06 7,1 C 6,1 C 2,8 C 94 % 1022,6 hPa 0,0 l/m 0 min 2 min 11 W/m 12,9 km/h (3 Bft) 100,00 %
02.02.2023 09:08 7,1 C 6,1 C 2,8 C 95 % 1022,6 hPa 0,0 l/m 0 min 2 min 12 W/m 19,3 km/h (3 Bft) 97,87 %
02.02.2023 09:10 7,1 C 6,1 C 2,8 C 95 % 1022,6 hPa 0,0 l/m 0 min 2 min 11 W/m 16,1 km/h (3 Bft) 100,00 %
02.02.2023 09:12 7,1 C 6,1 C 2,8 C 95 % 1022,6 hPa 0,0 l/m 0 min 2 min 11 W/m 19,3 km/h (3 Bft) 97,87 %
02.02.2023 09:14 7,1 C 6,1 C 2,8 C 95 % 1022,7 hPa 0,0 l/m 0 min 2 min 9 W/m 9,7 km/h (2 Bft) 97,87 %
02.02.2023 09:16 7,0 C 6,1 C 2,8 C 95 % 1022,7 hPa 0,0 l/m 0 min 2 min 10 W/m 12,9 km/h (3 Bft) 97,83 %
02.02.2023 09:18 7,0 C 6,1 C 2,8 C 95 % 1022,7 hPa 0,0 l/m 0 min 2 min 12 W/m 19,3 km/h (3 Bft) 97,87 %
02.02.2023 09:20 7,0 C 6,1 C 2,8 C 95 % 1022,7 hPa 0,0 l/m 0 min 2 min 14 W/m 16,1 km/h (3 Bft) 95,74 %
02.02.2023 09:22 7,0 C 6,1 C 2,8 C 95 % 1022,7 hPa 0,0 l/m 0 min 2 min 16 W/m 12,9 km/h (3 Bft) 97,87 %
02.02.2023 09:24 7,0 C 6,1 C 2,8 C 95 % 1022,7 hPa 0,0 l/m 0 min 2 min 14 W/m 16,1 km/h (3 Bft) 97,87 %
02.02.2023 09:26 7,0 C 6,1 C 2,8 C 95 % 1022,8 hPa 0,0 l/m 0 min 2 min 14 W/m 19,3 km/h (3 Bft) 97,87 %
02.02.2023 09:28 7,0 C 6,1 C 2,8 C 95 % 1022,8 hPa 0,0 l/m 0 min 2 min 16 W/m 19,3 km/h (3 Bft) 97,87 %
02.02.2023 09:30 7,0 C 6,1 C 2,8 C 95 % 1022,8 hPa 0,0 l/m 0 min 2 min 17 W/m 19,3 km/h (3 Bft) 95,65 %
02.02.2023 09:32 7,1 C 6,1 C 2,8 C 95 % 1022,8 hPa 0,0 l/m 0 min 2 min 18 W/m 12,9 km/h (3 Bft) 95,74 %
02.02.2023 09:34 7,0 C 6,1 C 3,3 C 95 % 1022,8 hPa 0,2 l/m 0 min 2 min 19 W/m 19,3 km/h (3 Bft) 95,74 %
02.02.2023 09:36 7,1 C 6,1 C 3,3 C 95 % 1022,8 hPa 0,0 l/m 0 min 2 min 16 W/m 22,5 km/h (4 Bft) 97,87 %
02.02.2023 09:38 7,1 C 6,1 C 3,3 C 95 % 1022,9 hPa 0,0 l/m 0 min 2 min 14 W/m 19,3 km/h (3 Bft) 97,87 %
02.02.2023 09:40 7,1 C 6,1 C 3,3 C 95 % 1022,9 hPa 0,0 l/m 0 min 0 min 12 W/m 16,1 km/h (3 Bft) 97,87 %
02.02.2023 09:42 7,1 C 6,1 C 3,3 C 95 % 1022,9 hPa 0,0 l/m 0 min 0 min 15 W/m 19,3 km/h (3 Bft) 97,87 %
02.02.2023 09:44 7,1 C 6,1 C 3,3 C 96 % 1022,9 hPa 0,0 l/m 0 min 0 min 16 W/m 19,3 km/h (3 Bft) 97,83 %
02.02.2023 09:46 7,1 C 6,7 C 3,3 C 96 % 1023,0 hPa 0,0 l/m 0 min 2 min 16 W/m 22,5 km/h (4 Bft) 97,87 %
02.02.2023 09:48 7,1 C 6,7 C 3,3 C 96 % 1023,0 hPa 0,0 l/m 0 min 2 min 20 W/m 19,3 km/h (3 Bft) 95,74 %
02.02.2023 09:50 7,1 C 6,7 C 3,3 C 96 % 1023,1 hPa 0,0 l/m 0 min 2 min 25 W/m 19,3 km/h (3 Bft) 97,87 %
02.02.2023 09:52 7,1 C 6,7 C 3,3 C 96 % 1023,0 hPa 0,0 l/m 0 min 2 min 27 W/m 16,1 km/h (3 Bft) 97,87 %
02.02.2023 09:54 7,1 C 6,1 C 3,3 C 96 % 1023,0 hPa 0,2 l/m 0 min 2 min 27 W/m 16,1 km/h (3 Bft) 97,87 %
02.02.2023 09:56 7,1 C 6,1 C 3,3 C 96 % 1023,1 hPa 0,0 l/m 0 min 2 min 30 W/m 16,1 km/h (3 Bft) 97,83 %
02.02.2023 09:58 7,1 C 6,1 C 3,3 C 96 % 1023,1 hPa 0,0 l/m 0 min 2 min 31 W/m 19,3 km/h (3 Bft) 97,87 %
02.02.2023 10:00 7,1 C 6,1 C 3,3 C 96 % 1023,0 hPa 0,0 l/m 0 min 2 min 32 W/m 12,9 km/h (3 Bft) 95,74 %
02.02.2023 10:02 7,1 C 6,1 C 3,3 C 96 % 1023,1 hPa 0,0 l/m 0 min 0 min 28 W/m 16,1 km/h (3 Bft) 100,00 %
02.02.2023 10:04 7,1 C 6,1 C 3,3 C 95 % 1023,2 hPa 0,0 l/m 0 min 2 min 31 W/m 12,9 km/h (3 Bft) 100,00 %
02.02.2023 10:06 7,1 C 6,1 C 3,3 C 96 % 1023,2 hPa 0,0 l/m 0 min 0 min 28 W/m 12,9 km/h (3 Bft) 100,00 %
02.02.2023 10:08 7,1 C 6,1 C 3,3 C 96 % 1023,2 hPa 0,0 l/m 0 min 0 min 26 W/m 16,1 km/h (3 Bft) 100,00 %
02.02.2023 10:10 7,1 C 6,1 C 3,3 C 96 % 1023,3 hPa 0,0 l/m 0 min 0 min 28 W/m 12,9 km/h (3 Bft) 97,87 %
02.02.2023 10:12 7,1 C 6,7 C 3,3 C 96 % 1023,3 hPa 0,0 l/m 0 min 0 min 39 W/m 9,7 km/h (2 Bft) 95,74 %
02.02.2023 10:14 7,1 C 6,7 C 3,3 C 96 % 1023,2 hPa 0,0 l/m 0 min 0 min 40 W/m 19,3 km/h (3 Bft) 97,83 %
02.02.2023 10:16 7,1 C 6,7 C 3,3 C 96 % 1023,3 hPa 0,0 l/m 0 min 0 min 31 W/m 12,9 km/h (3 Bft) 97,87 %
02.02.2023 10:18 7,1 C 6,7 C 3,3 C 96 % 1023,4 hPa 0,0 l/m 0 min 0 min 26 W/m 16,1 km/h (3 Bft) 97,87 %
02.02.2023 10:20 7,1 C 6,7 C 3,3 C 96 % 1023,4 hPa 0,0 l/m 0 min 0 min 28 W/m 19,3 km/h (3 Bft) 97,87 %
02.02.2023 10:22 7,1 C 6,7 C 3,3 C 96 % 1023,4 hPa 0,0 l/m 0 min 0 min 29 W/m 22,5 km/h (4 Bft) 97,87 %
02.02.2023 10:24 7,1 C 6,7 C 3,3 C 96 % 1023,5 hPa 0,0 l/m 0 min 0 min 23 W/m 16,1 km/h (3 Bft) 95,74 %
02.02.2023 10:26 7,1 C 6,7 C 3,3 C 96 % 1023,6 hPa 0,0 l/m 0 min 0 min 22 W/m 16,1 km/h (3 Bft) 97,83 %
02.02.2023 10:28 7,1 C 6,7 C 3,3 C 96 % 1023,7 hPa 0,0 l/m 0 min 0 min 23 W/m 16,1 km/h (3 Bft) 95,74 %
02.02.2023 10:30 7,1 C 6,7 C 3,3 C 96 % 1023,7 hPa 0,0 l/m 0 min 0 min 19 W/m 12,9 km/h (3 Bft) 93,62 %
02.02.2023 10:32 7,1 C 6,7 C 3,3 C 96 % 1023,7 hPa 0,0 l/m 0 min 0 min 24 W/m 12,9 km/h (3 Bft) 95,74 %
02.02.2023 10:34 7,1 C 6,7 C 3,3 C 96 % 1023,8 hPa 0,0 l/m 0 min 0 min 36 W/m 16,1 km/h (3 Bft) 93,62 %
02.02.2023 10:36 7,1 C 6,7 C 3,3 C 96 % 1023,8 hPa 0,0 l/m 0 min 0 min 25 W/m 19,3 km/h (3 Bft) 93,62 %
02.02.2023 10:38 7,1 C 6,7 C 3,3 C 96 % 1023,8 hPa 0,0 l/m 0 min 0 min 19 W/m 12,9 km/h (3 Bft) 95,74 %
02.02.2023 10:40 7,1 C 6,7 C 3,3 C 96 % 1023,9 hPa 0,0 l/m 0 min 0 min 20 W/m 12,9 km/h (3 Bft) 95,74 %
02.02.2023 10:42 7,1 C 6,7 C 3,3 C 96 % 1023,9 hPa 0,0 l/m 0 min 0 min 20 W/m 16,1 km/h (3 Bft) 95,65 %
02.02.2023 10:44 7,1 C 6,7 C 3,3 C 96 % 1023,9 hPa 0,0 l/m 0 min 0 min 24 W/m 22,5 km/h (4 Bft) 95,74 %
02.02.2023 10:46 7,1 C 6,7 C 3,3 C 96 % 1024,0 hPa 0,0 l/m 0 min 0 min 37 W/m 12,9 km/h (3 Bft) 97,87 %
02.02.2023 10:48 7,1 C 6,7 C 3,3 C 96 % 1024,0 hPa 0,0 l/m 0 min 0 min 36 W/m 12,9 km/h (3 Bft) 97,87 %
02.02.2023 10:50 7,1 C 6,7 C 3,3 C 96 % 1024,0 hPa 0,0 l/m 0 min 0 min 30 W/m 16,1 km/h (3 Bft) 97,87 %
02.02.2023 10:52 7,1 C 6,7 C 3,3 C 96 % 1024,0 hPa 0,0 l/m 0 min 0 min 25 W/m 12,9 km/h (3 Bft) 95,74 %
02.02.2023 10:54 7,1 C 6,7 C 3,3 C 96 % 1024,0 hPa 0,0 l/m 0 min 0 min 38 W/m 12,9 km/h (3 Bft) 93,48 %
02.02.2023 10:56 7,1 C 6,7 C 3,3 C 96 % 1024,0 hPa 0,0 l/m 0 min 0 min 62 W/m 12,9 km/h (3 Bft) 97,87 %
02.02.2023 10:58 7,2 C 6,7 C 3,3 C 96 % 1024,1 hPa 0,0 l/m 0 min 0 min 52 W/m 16,1 km/h (3 Bft) 97,87 %
02.02.2023 11:00 7,2 C 6,7 C 3,3 C 96 % 1024,2 hPa 0,0 l/m 0 min 0 min 53 W/m 12,9 km/h (3 Bft) 97,87 %
02.02.2023 11:02 7,2 C 6,7 C 3,3 C 96 % 1024,2 hPa 0,0 l/m 0 min 0 min 51 W/m 12,9 km/h (3 Bft) 97,87 %
02.02.2023 11:04 7,2 C 6,7 C 3,3 C 96 % 1024,2 hPa 0,0 l/m 0 min 0 min 41 W/m 6,4 km/h (2 Bft) 97,67 %
02.02.2023 11:06 7,2 C 6,7 C 3,3 C 96 % 1024,3 hPa 0,0 l/m 0 min 0 min 38 W/m 16,1 km/h (3 Bft) 97,87 %
02.02.2023 11:08 7,2 C 6,7 C 3,3 C 96 % 1024,3 hPa 0,0 l/m 0 min 0 min 39 W/m 16,1 km/h (3 Bft) 97,14 %
02.02.2023 11:10 7,2 C 6,7 C 3,3 C 96 % 1024,3 hPa 0,0 l/m 0 min 0 min 35 W/m 22,5 km/h (4 Bft) 97,87 %
02.02.2023 11:12 7,2 C 6,7 C 3,3 C 96 % 1024,3 hPa 0,0 l/m 0 min 0 min 40 W/m 12,9 km/h (3 Bft) 97,87 %
02.02.2023 11:14 7,2 C 6,7 C 3,3 C 96 % 1024,3 hPa 0,0 l/m 0 min 0 min 48 W/m 19,3 km/h (3 Bft) 97,87 %
02.02.2023 11:16 7,2 C 6,7 C 3,3 C 96 % 1024,4 hPa 0,0 l/m 0 min 0 min 47 W/m 19,3 km/h (3 Bft) 57,14 %
02.02.2023 11:18 7,2 C 6,7 C 3,3 C 96 % 1024,4 hPa 0,0 l/m 0 min 0 min 50 W/m 12,9 km/h (3 Bft) 97,50 %
02.02.2023 11:20 7,2 C 6,7 C 3,3 C 96 % 1024,3 hPa 0,0 l/m 0 min 0 min 59 W/m 9,7 km/h (2 Bft) 97,96 %
02.02.2023 11:22 7,2 C 6,7 C 3,3 C 96 % 1024,3 hPa 0,0 l/m 0 min 0 min 64 W/m 22,5 km/h (4 Bft) 97,87 %
02.02.2023 11:24 7,3 C 7,2 C 3,3 C 96 % 1024,4 hPa 0,0 l/m 0 min 0 min 67 W/m 19,3 km/h (3 Bft) 97,87 %
02.02.2023 11:26 7,3 C 7,2 C 3,3 C 96 % 1024,5 hPa 0,0 l/m 0 min 0 min 73 W/m 16,1 km/h (3 Bft) 100,00 %
02.02.2023 11:28 7,3 C 7,2 C 3,9 C 96 % 1024,4 hPa 0,0 l/m 0 min 0 min 78 W/m 19,3 km/h (3 Bft) 100,00 %
02.02.2023 11:30 7,3 C 7,2 C 3,9 C 96 % 1024,5 hPa 0,0 l/m 0 min 0 min 91 W/m 22,5 km/h (4 Bft) 100,00 %
02.02.2023 11:32 7,4 C 7,2 C 3,9 C 96 % 1024,5 hPa 0,0 l/m 0 min 0 min 96 W/m 16,1 km/h (3 Bft) 100,00 %
02.02.2023 11:34 7,4 C 7,2 C 3,9 C 96 % 1024,4 hPa 0,0 l/m 0 min 0 min 81 W/m 12,9 km/h (3 Bft) 97,83 %
02.02.2023 11:36 7,4 C 7,2 C 3,9 C 96 % 1024,4 hPa 0,0 l/m 0 min 0 min 81 W/m 12,9 km/h (3 Bft) 100,00 %
02.02.2023 11:38 7,4 C 7,2 C 3,9 C 96 % 1024,5 hPa 0,0 l/m 0 min 0 min 71 W/m 12,9 km/h (3 Bft) 100,00 %
02.02.2023 11:40 7,5 C 7,2 C 3,9 C 95 % 1024,4 hPa 0,0 l/m 0 min 0 min 69 W/m 25,7 km/h (4 Bft) 97,87 %
02.02.2023 11:42 7,5 C 7,2 C 3,9 C 95 % 1024,5 hPa 0,0 l/m 0 min 0 min 57 W/m 19,3 km/h (3 Bft) 100,00 %
02.02.2023 11:44 7,5 C 7,2 C 3,9 C 95 % 1024,5 hPa 0,0 l/m 0 min 0 min 52 W/m 19,3 km/h (3 Bft) 97,87 %
02.02.2023 11:46 7,5 C 7,2 C 3,9 C 95 % 1024,5 hPa 0,0 l/m 0 min 0 min 47 W/m 12,9 km/h (3 Bft) 100,00 %
02.02.2023 11:48 7,5 C 7,2 C 3,9 C 95 % 1024,5 hPa 0,0 l/m 0 min 0 min 45 W/m 19,3 km/h (3 Bft) 97,83 %
02.02.2023 11:50 7,6 C 7,2 C 3,9 C 95 % 1024,6 hPa 0,0 l/m 0 min 0 min 51 W/m 12,9 km/h (3 Bft) 97,87 %
02.02.2023 11:52 7,6 C 7,2 C 3,9 C 95 % 1024,5 hPa 0,0 l/m 0 min 0 min 52 W/m 22,5 km/h (4 Bft) 97,87 %
02.02.2023 11:54 7,6 C 7,2 C 3,9 C 95 % 1024,5 hPa 0,0 l/m 0 min 0 min 49 W/m 16,1 km/h (3 Bft) 97,87 %
02.02.2023 11:56 7,6 C 7,2 C 3,9 C 95 % 1024,5 hPa 0,0 l/m 0 min 0 min 53 W/m 12,9 km/h (3 Bft) 95,74 %
02.02.2023 11:58 7,6 C 7,2 C 3,9 C 95 % 1024,5 hPa 0,0 l/m 0 min 0 min 55 W/m 12,9 km/h (3 Bft) 95,74 %
02.02.2023 12:00 7,6 C 7,2 C 3,9 C 95 % 1024,5 hPa 0,0 l/m 0 min 0 min 65 W/m 12,9 km/h (3 Bft) 97,83 %
02.02.2023 12:02 7,6 C 7,2 C 3,9 C 94 % 1024,5 hPa 0,0 l/m 0 min 0 min 65 W/m 12,9 km/h (3 Bft) 97,87 %
02.02.2023 12:04 7,6 C 7,2 C 3,9 C 94 % 1024,6 hPa 0,0 l/m 0 min 0 min 62 W/m 16,1 km/h (3 Bft) 97,87 %
02.02.2023 12:07 7,7 C 7,2 C 3,9 C 94 % 1024,6 hPa 0,0 l/m 0 min 0 min 53 W/m 12,9 km/h (3 Bft) 95,83 %
02.02.2023 12:08 7,7 C 7,2 C 3,9 C 94 % 1024,6 hPa 0,0 l/m 0 min 0 min 47 W/m 12,9 km/h (3 Bft) 100,00 %
02.02.2023 12:10 7,7 C 7,2 C 3,9 C 94 % 1024,6 hPa 0,0 l/m 0 min 0 min 49 W/m 16,1 km/h (3 Bft) 95,74 %
02.02.2023 12:12 7,7 C 7,2 C 3,9 C 94 % 1024,7 hPa 0,0 l/m 0 min 0 min 47 W/m 19,3 km/h (3 Bft) 93,62 %
02.02.2023 12:14 7,7 C 7,2 C 3,9 C 94 % 1024,7 hPa 0,0 l/m 0 min 0 min 51 W/m 16,1 km/h (3 Bft) 95,74 %
02.02.2023 12:16 7,7 C 7,2 C 4,4 C 94 % 1024,7 hPa 0,0 l/m 0 min 0 min 60 W/m 12,9 km/h (3 Bft) 93,62 %
02.02.2023 12:18 7,7 C 7,2 C 4,4 C 94 % 1024,7 hPa 0,0 l/m 0 min 0 min 61 W/m 19,3 km/h (3 Bft) 89,36 %
02.02.2023 12:20 7,7 C 7,2 C 4,4 C 94 % 1024,7 hPa 0,0 l/m 0 min 0 min 62 W/m 6,4 km/h (2 Bft) 95,74 %
02.02.2023 12:22 7,7 C 7,2 C 4,4 C 94 % 1024,7 hPa 0,0 l/m 0 min 0 min 59 W/m 12,9 km/h (3 Bft) 95,65 %
02.02.2023 12:24 7,7 C 7,2 C 4,4 C 94 % 1024,7 hPa 0,0 l/m 0 min 0 min 60 W/m 16,1 km/h (3 Bft) 93,62 %
02.02.2023 12:26 7,8 C 7,2 C 4,4 C 94 % 1024,7 hPa 0,0 l/m 0 min 0 min 63 W/m 12,9 km/h (3 Bft) 91,49 %
02.02.2023 12:28 7,8 C 7,2 C 4,4 C 94 % 1024,7 hPa 0,0 l/m 0 min 0 min 70 W/m 12,9 km/h (3 Bft) 95,74 %
02.02.2023 12:30 7,8 C 7,8 C 4,4 C 93 % 1024,7 hPa 0,0 l/m 0 min 0 min 73 W/m 12,9 km/h (3 Bft) 93,62 %
02.02.2023 12:32 7,8 C 7,8 C 4,4 C 93 % 1024,7 hPa 0,0 l/m 0 min 0 min 72 W/m 16,1 km/h (3 Bft) 93,62 %
02.02.2023 12:34 7,8 C 7,8 C 4,4 C 93 % 1024,7 hPa 0,0 l/m 0 min 0 min 73 W/m 12,9 km/h (3 Bft) 95,74 %
02.02.2023 12:36 7,8 C 7,8 C 4,4 C 93 % 1024,7 hPa 0,0 l/m 0 min 0 min 77 W/m 12,9 km/h (3 Bft) 93,48 %
02.02.2023 12:38 7,8 C 7,8 C 4,4 C 93 % 1024,7 hPa 0,0 l/m 0 min 0 min 79 W/m 12,9 km/h (3 Bft) 95,74 %
02.02.2023 12:40 7,9 C 7,8 C 4,4 C 93 % 1024,6 hPa 0,0 l/m 0 min 0 min 79 W/m 12,9 km/h (3 Bft) 100,00 %
02.02.2023 12:42 7,9 C 7,8 C 4,4 C 93 % 1024,6 hPa 0,0 l/m 0 min 0 min 67 W/m 12,9 km/h (3 Bft) 97,87 %
02.02.2023 12:44 7,9 C 7,8 C 4,4 C 93 % 1024,6 hPa 0,0 l/m 0 min 0 min 64 W/m 19,3 km/h (3 Bft) 100,00 %
02.02.2023 12:46 7,9 C 7,8 C 4,4 C 93 % 1024,6 hPa 0,0 l/m 0 min 0 min 71 W/m 16,1 km/h (3 Bft) 100,00 %
02.02.2023 12:48 7,9 C 7,8 C 4,4 C 93 % 1024,6 hPa 0,0 l/m 0 min 0 min 80 W/m 16,1 km/h (3 Bft) 97,83 %
02.02.2023 12:50 7,9 C 7,8 C 4,4 C 93 % 1024,5 hPa 0,0 l/m 0 min 0 min 84 W/m 16,1 km/h (3 Bft) 100,00 %
02.02.2023 12:52 7,9 C 7,8 C 4,4 C 93 % 1024,3 hPa 0,0 l/m 0 min 2 min 83 W/m 16,1 km/h (3 Bft) 100,00 %
02.02.2023 12:54 7,9 C 7,8 C 4,4 C 93 % 1024,5 hPa 0,0 l/m 0 min 2 min 78 W/m 16,1 km/h (3 Bft) 95,74 %
02.02.2023 12:56 7,9 C 7,8 C 4,4 C 93 % 1024,4 hPa 0,0 l/m 0 min 2 min 77 W/m 19,3 km/h (3 Bft) 97,87 %
02.02.2023 12:58 7,9 C 7,8 C 4,4 C 93 % 1024,5 hPa 0,0 l/m 0 min 2 min 77 W/m 22,5 km/h (4 Bft) 100,00 %
02.02.2023 13:00 7,9 C 7,8 C 4,4 C 93 % 1024,4 hPa 0,0 l/m 0 min 0 min 72 W/m 12,9 km/h (3 Bft) 97,87 %
02.02.2023 13:02 7,9 C 7,8 C 4,4 C 93 % 1024,5 hPa 0,0 l/m 0 min 2 min 71 W/m 16,1 km/h (3 Bft) 97,83 %
02.02.2023 13:04 7,9 C 7,8 C 4,4 C 93 % 1024,4 hPa 0,0 l/m 0 min 2 min 75 W/m 19,3 km/h (3 Bft) 100,00 %
02.02.2023 13:06 7,9 C 7,8 C 4,4 C 93 % 1024,4 hPa 0,0 l/m 0 min 2 min 87 W/m 16,1 km/h (3 Bft) 95,74 %
02.02.2023 13:08 7,9 C 7,8 C 4,4 C 93 % 1024,4 hPa 0,0 l/m 0 min 2 min 90 W/m 16,1 km/h (3 Bft) 100,00 %
02.02.2023 13:10 8,0 C 7,8 C 4,4 C 92 % 1024,6 hPa 0,0 l/m 0 min 0 min 87 W/m 12,9 km/h (3 Bft) 97,87 %
02.02.2023 13:12 8,0 C 7,8 C 4,4 C 92 % 1024,5 hPa 0,0 l/m 0 min 0 min 92 W/m 16,1 km/h (3 Bft) 100,00 %
02.02.2023 13:14 8,0 C 7,8 C 5,0 C 92 % 1024,4 hPa 0,0 l/m 0 min 2 min 85 W/m 19,3 km/h (3 Bft) 100,00 %
02.02.2023 13:16 8,1 C 7,8 C 5,0 C 92 % 1024,4 hPa 0,0 l/m 0 min 0 min 84 W/m 12,9 km/h (3 Bft) 100,00 %
02.02.2023 13:18 8,1 C 7,8 C 5,0 C 92 % 1024,6 hPa 0,0 l/m 0 min 0 min 79 W/m 19,3 km/h (3 Bft) 97,87 %
02.02.2023 13:20 8,1 C 7,8 C 5,0 C 92 % 1024,5 hPa 0,0 l/m 0 min 0 min 79 W/m 16,1 km/h (3 Bft) 100,00 %
02.02.2023 13:22 8,1 C 7,8 C 5,0 C 92 % 1024,4 hPa 0,0 l/m 0 min 0 min 78 W/m 19,3 km/h (3 Bft) 97,87 %
02.02.2023 13:24 8,1 C 7,8 C 5,0 C 92 % 1024,4 hPa 0,0 l/m 0 min 0 min 75 W/m 16,1 km/h (3 Bft) 100,00 %
02.02.2023 13:26 8,1 C 7,8 C 5,0 C 92 % 1024,4 hPa 0,0 l/m 0 min 0 min 75 W/m 16,1 km/h (3 Bft) 100,00 %
02.02.2023 13:28 8,1 C 7,8 C 5,0 C 92 % 1024,4 hPa 0,0 l/m 0 min 0 min 65 W/m 12,9 km/h (3 Bft) 100,00 %
02.02.2023 13:30 8,1 C 7,8 C 5,0 C 92 % 1024,3 hPa 0,0 l/m 0 min 0 min 66 W/m 16,1 km/h (3 Bft) 100,00 %
02.02.2023 13:32 8,2 C 7,8 C 5,0 C 91 % 1024,4 hPa 0,0 l/m 0 min 0 min 59 W/m 16,1 km/h (3 Bft) 97,87 %
02.02.2023 13:34 8,2 C 7,8 C 5,0 C 91 % 1024,3 hPa 0,0 l/m 0 min 0 min 45 W/m 19,3 km/h (3 Bft) 97,87 %
02.02.2023 13:36 8,2 C 7,8 C 5,0 C 91 % 1024,3 hPa 0,0 l/m 0 min 0 min 35 W/m 12,9 km/h (3 Bft) 95,74 %
02.02.2023 13:38 8,2 C 7,8 C 5,0 C 91 % 1024,3 hPa 0,0 l/m 0 min 0 min 39 W/m 16,1 km/h (3 Bft) 97,87 %
02.02.2023 13:40 8,2 C 7,8 C 5,0 C 91 % 1024,3 hPa 0,0 l/m 0 min 0 min 44 W/m 12,9 km/h (3 Bft) 95,74 %
02.02.2023 13:42 8,2 C 7,8 C 5,0 C 91 % 1024,3 hPa 0,0 l/m 0 min 0 min 39 W/m 16,1 km/h (3 Bft) 97,83 %
02.02.2023 13:44 8,2 C 7,8 C 5,0 C 91 % 1024,3 hPa 0,0 l/m 0 min 0 min 39 W/m 19,3 km/h (3 Bft) 97,87 %
02.02.2023 13:46 8,2 C 7,8 C 5,0 C 91 % 1024,3 hPa 0,0 l/m 0 min 0 min 40 W/m 19,3 km/h (3 Bft) 97,87 %
02.02.2023 13:48 8,2 C 7,8 C 5,0 C 91 % 1024,3 hPa 0,0 l/m 0 min 0 min 37 W/m 12,9 km/h (3 Bft) 95,74 %
02.02.2023 13:50 8,2 C 7,8 C 5,0 C 91 % 1024,2 hPa 0,0 l/m 0 min 0 min 39 W/m 19,3 km/h (3 Bft) 97,87 %
02.02.2023 13:52 8,2 C 7,8 C 5,0 C 90 % 1024,3 hPa 0,0 l/m 0 min 0 min 43 W/m 29,0 km/h (5 Bft) 95,74 %
02.02.2023 13:54 8,2 C 7,8 C 5,0 C 90 % 1024,2 hPa 0,0 l/m 0 min 0 min 42 W/m 22,5 km/h (4 Bft) 97,83 %
02.02.2023 13:56 8,2 C 7,8 C 5,0 C 90 % 1024,3 hPa 0,0 l/m 0 min 0 min 39 W/m 16,1 km/h (3 Bft) 97,87 %
02.02.2023 13:58 8,2 C 7,8 C 4,4 C 90 % 1024,3 hPa 0,0 l/m 0 min 0 min 38 W/m 16,1 km/h (3 Bft) 97,87 %
02.02.2023 14:00 8,2 C 7,8 C 4,4 C 90 % 1024,3 hPa 0,0 l/m 0 min 0 min 32 W/m 12,9 km/h (3 Bft) 97,87 %
02.02.2023 14:02 8,2 C 7,8 C 4,4 C 90 % 1024,3 hPa 0,0 l/m 0 min 0 min 28 W/m 12,9 km/h (3 Bft) 95,74 %
02.02.2023 14:04 8,2 C 7,8 C 4,4 C 90 % 1024,4 hPa 0,0 l/m 0 min 0 min 37 W/m 9,7 km/h (2 Bft) 95,74 %
02.02.2023 14:06 8,2 C 7,8 C 4,4 C 90 % 1024,3 hPa 0,0 l/m 0 min 0 min 35 W/m 12,9 km/h (3 Bft) 91,49 %
02.02.2023 14:08 8,2 C 7,8 C 4,4 C 91 % 1024,3 hPa 0,0 l/m 0 min 0 min 31 W/m 16,1 km/h (3 Bft) 100,00 %
02.02.2023 14:10 8,1 C 7,2 C 4,4 C 91 % 1024,3 hPa 0,0 l/m 0 min 0 min 34 W/m 16,1 km/h (3 Bft) 95,74 %
02.02.2023 14:12 8,1 C 7,2 C 4,4 C 91 % 1024,3 hPa 0,0 l/m 0 min 0 min 35 W/m 12,9 km/h (3 Bft) 93,62 %
02.02.2023 14:14 8,1 C 7,2 C 4,4 C 91 % 1024,3 hPa 0,0 l/m 0 min 2 min 35 W/m 12,9 km/h (3 Bft) 95,74 %
02.02.2023 14:16 8,1 C 7,2 C 4,4 C 91 % 1024,3 hPa 0,0 l/m 0 min 0 min 31 W/m 12,9 km/h (3 Bft) 95,74 %
02.02.2023 14:18 8,1 C 7,2 C 4,4 C 91 % 1024,3 hPa 0,0 l/m 0 min 0 min 38 W/m 16,1 km/h (3 Bft) 95,74 %
02.02.2023 14:20 8,1 C 7,2 C 4,4 C 91 % 1024,3 hPa 0,0 l/m 0 min 0 min 40 W/m 16,1 km/h (3 Bft) 95,65 %
02.02.2023 14:22 8,1 C 7,2 C 4,4 C 91 % 1024,4 hPa 0,0 l/m 0 min 0 min 34 W/m 12,9 km/h (3 Bft) 95,74 %
02.02.2023 14:24 8,1 C 7,2 C 4,4 C 91 % 1024,4 hPa 0,0 l/m 0 min 0 min 35 W/m 19,3 km/h (3 Bft) 95,74 %
02.02.2023 14:26 8,1 C 7,2 C 4,4 C 91 % 1024,4 hPa 0,0 l/m 0 min 0 min 34 W/m 6,4 km/h (2 Bft) 93,62 %
02.02.2023 14:28 8,1 C 7,2 C 4,4 C 91 % 1024,4 hPa 0,0 l/m 0 min 0 min 29 W/m 16,1 km/h (3 Bft) 95,74 %
02.02.2023 14:30 8,1 C 7,2 C 4,4 C 91 % 1024,4 hPa 0,0 l/m 0 min 0 min 29 W/m 12,9 km/h (3 Bft) 93,62 %
02.02.2023 14:32 8,1 C 7,8 C 4,4 C 91 % 1024,4 hPa 0,0 l/m 0 min 0 min 28 W/m 12,9 km/h (3 Bft) 95,65 %
02.02.2023 14:34 8,1 C 7,8 C 4,4 C 91 % 1024,4 hPa 0,0 l/m 0 min 0 min 29 W/m 9,7 km/h (2 Bft) 95,74 %
02.02.2023 14:36 8,1 C 7,8 C 4,4 C 91 % 1024,4 hPa 0,0 l/m 0 min 0 min 30 W/m 16,1 km/h (3 Bft) 97,87 %
02.02.2023 14:38 8,1 C 7,8 C 4,4 C 91 % 1024,4 hPa 0,0 l/m 0 min 0 min 27 W/m 16,1 km/h (3 Bft) 95,74 %
02.02.2023 14:40 8,1 C 7,8 C 4,4 C 91 % 1024,4 hPa 0,0 l/m 0 min 0 min 31 W/m 12,9 km/h (3 Bft) 97,87 %
02.02.2023 14:42 8,1 C 7,8 C 4,4 C 91 % 1024,5 hPa 0,0 l/m 0 min 0 min 33 W/m 12,9 km/h (3 Bft) 95,74 %
02.02.2023 14:44 8,1 C 7,2 C 4,4 C 91 % 1024,6 hPa 0,0 l/m 0 min 0 min 40 W/m 19,3 km/h (3 Bft) 97,87 %
02.02.2023 14:46 8,1 C 7,2 C 4,4 C 91 % 1024,6 hPa 0,0 l/m 0 min 0 min 44 W/m 16,1 km/h (3 Bft) 97,83 %
02.02.2023 14:48 8,1 C 7,2 C 4,4 C 91 % 1024,6 hPa 0,0 l/m 0 min 2 min 32 W/m 22,5 km/h (4 Bft) 97,87 %
02.02.2023 14:50 8,1 C 7,2 C 3,9 C 92 % 1024,6 hPa 0,0 l/m 0 min 2 min 28 W/m 16,1 km/h (3 Bft) 97,87 %
02.02.2023 14:52 8,0 C 7,2 C 3,9 C 92 % 1024,5 hPa 0,0 l/m 0 min 2 min 26 W/m 12,9 km/h (3 Bft) 97,87 %
02.02.2023 14:54 7,9 C 7,2 C 3,9 C 92 % 1024,6 hPa 0,0 l/m 0 min 0 min 29 W/m 12,9 km/h (3 Bft) 97,87 %
02.02.2023 14:56 7,9 C 7,2 C 3,9 C 92 % 1024,6 hPa 0,0 l/m 0 min 0 min 28 W/m 9,7 km/h (2 Bft) 97,87 %
02.02.2023 14:58 7,9 C 7,2 C 3,9 C 92 % 1024,6 hPa 0,0 l/m 0 min 0 min 26 W/m 6,4 km/h (2 Bft) 97,14 %
02.02.2023 15:00 7,8 C 7,2 C 3,9 C 92 % 1024,6 hPa 0,0 l/m 0 min 0 min 27 W/m 12,9 km/h (3 Bft) 98,28 %
02.02.2023 15:02 7,9 C 7,2 C 3,9 C 93 % 1024,6 hPa 0,0 l/m 0 min 0 min 26 W/m 6,4 km/h (2 Bft) 97,22 %
02.02.2023 15:04 7,9 C 7,8 C 3,9 C 93 % 1024,6 hPa 0,0 l/m 0 min 0 min 26 W/m 22,5 km/h (4 Bft) 94,83 %
02.02.2023 15:06 8,0 C 7,8 C 4,4 C 93 % 1024,4 hPa 0,0 l/m 0 min 0 min 25 W/m 16,1 km/h (3 Bft) 97,87 %
02.02.2023 15:08 8,0 C 7,8 C 4,4 C 93 % 1024,4 hPa 0,0 l/m 0 min 0 min 22 W/m 16,1 km/h (3 Bft) 97,87 %
02.02.2023 15:10 8,1 C 7,8 C 4,4 C 93 % 1024,4 hPa 0,0 l/m 0 min 0 min 21 W/m 12,9 km/h (3 Bft) 97,87 %
02.02.2023 15:12 8,2 C 7,8 C 4,4 C 93 % 1024,4 hPa 0,0 l/m 0 min 0 min 19 W/m 16,1 km/h (3 Bft) 97,14 %
02.02.2023 15:14 8,2 C 7,8 C 4,4 C 92 % 1024,5 hPa 0,0 l/m 0 min 0 min 21 W/m 9,7 km/h (2 Bft) 100,00 %
02.02.2023 15:16 8,2 C 7,8 C 4,4 C 92 % 1024,6 hPa 0,0 l/m 0 min 0 min 22 W/m 12,9 km/h (3 Bft) 97,83 %
02.02.2023 15:18 8,3 C 7,8 C 4,4 C 92 % 1024,4 hPa 0,0 l/m 0 min 0 min 25 W/m 22,5 km/h (4 Bft) 100,00 %
02.02.2023 15:20 8,3 C 7,8 C 5,0 C 92 % 1024,4 hPa 0,0 l/m 0 min 0 min 26 W/m 12,9 km/h (3 Bft) 100,00 %
02.02.2023 15:22 8,4 C 7,8 C 5,0 C 92 % 1024,5 hPa 0,0 l/m 0 min 0 min 21 W/m 12,9 km/h (3 Bft) 100,00 %
02.02.2023 15:24 8,4 C 7,8 C 5,0 C 91 % 1024,5 hPa 0,0 l/m 0 min 0 min 19 W/m 12,9 km/h (3 Bft) 100,00 %
02.02.2023 15:26 8,4 C 7,8 C 5,0 C 91 % 1024,4 hPa 0,0 l/m 0 min 0 min 19 W/m 12,9 km/h (3 Bft) 100,00 %
02.02.2023 15:28 8,4 C 7,8 C 5,0 C 91 % 1024,4 hPa 0,0 l/m 0 min 0 min 18 W/m 22,5 km/h (4 Bft) 100,00 %
02.02.2023 15:30 8,5 C 8,3 C 5,0 C 91 % 1024,4 hPa 0,0 l/m 0 min 0 min 19 W/m 16,1 km/h (3 Bft) 100,00 %
02.02.2023 15:32 8,5 C 8,3 C 5,0 C 91 % 1024,5 hPa 0,0 l/m 0 min 0 min 17 W/m 16,1 km/h (3 Bft) 100,00 %
02.02.2023 15:34 8,6 C 8,3 C 5,0 C 91 % 1024,4 hPa 0,0 l/m 0 min 0 min 16 W/m 16,1 km/h (3 Bft) 100,00 %
02.02.2023 15:36 8,6 C 8,3 C 5,0 C 90 % 1024,4 hPa 0,0 l/m 0 min 0 min 18 W/m 16,1 km/h (3 Bft) 100,00 %
02.02.2023 15:38 8,6 C 8,3 C 5,0 C 90 % 1024,6 hPa 0,0 l/m 0 min 0 min 22 W/m 16,1 km/h (3 Bft) 100,00 %
02.02.2023 15:40 8,6 C 8,3 C 5,0 C 90 % 1024,4 hPa 0,0 l/m 0 min 0 min 25 W/m 22,5 km/h (4 Bft) 97,87 %
02.02.2023 15:42 8,6 C 8,3 C 5,0 C 90 % 1024,5 hPa 0,0 l/m 0 min 0 min 25 W/m 25,7 km/h (4 Bft) 100,00 %
02.02.2023 15:44 8,6 C 8,3 C 5,0 C 90 % 1024,5 hPa 0,0 l/m 0 min 0 min 26 W/m 19,3 km/h (3 Bft) 100,00 %
02.02.2023 15:46 8,6 C 8,3 C 5,0 C 90 % 1024,6 hPa 0,0 l/m 0 min 0 min 23 W/m 22,5 km/h (4 Bft) 100,00 %
02.02.2023 15:48 8,6 C 8,3 C 5,0 C 90 % 1024,6 hPa 0,0 l/m 0 min 0 min 24 W/m 16,1 km/h (3 Bft) 97,87 %
02.02.2023 15:50 8,6 C 8,3 C 5,0 C 90 % 1024,7 hPa 0,0 l/m 0 min 0 min 31 W/m 22,5 km/h (4 Bft) 97,87 %
02.02.2023 15:52 8,7 C 8,3 C 5,0 C 89 % 1024,7 hPa 0,0 l/m 0 min 0 min 35 W/m 19,3 km/h (3 Bft) 97,87 %
02.02.2023 15:54 8,7 C 8,3 C 5,0 C 89 % 1024,7 hPa 0,0 l/m 0 min 0 min 40 W/m 19,3 km/h (3 Bft) 100,00 %
02.02.2023 15:56 8,7 C 8,3 C 5,0 C 89 % 1024,8 hPa 0,0 l/m 0 min 0 min 48 W/m 19,3 km/h (3 Bft) 97,83 %
02.02.2023 15:58 8,7 C 8,3 C 5,0 C 89 % 1024,8 hPa 0,0 l/m 0 min 0 min 51 W/m 16,1 km/h (3 Bft) 97,87 %
02.02.2023 16:00 8,7 C 8,3 C 5,0 C 90 % 1024,7 hPa 0,0 l/m 0 min 0 min 47 W/m 12,9 km/h (3 Bft) 95,74 %
02.02.2023 16:02 8,7 C 8,3 C 5,0 C 90 % 1024,7 hPa 0,0 l/m 0 min 0 min 42 W/m 16,1 km/h (3 Bft) 97,87 %
02.02.2023 16:04 8,7 C 8,3 C 5,0 C 90 % 1024,8 hPa 0,0 l/m 0 min 0 min 36 W/m 16,1 km/h (3 Bft) 97,87 %
02.02.2023 16:06 8,7 C 8,3 C 5,0 C 90 % 1024,8 hPa 0,0 l/m 0 min 0 min 33 W/m 19,3 km/h (3 Bft) 98,28 %
02.02.2023 16:08 8,7 C 8,3 C 5,0 C 90 % 1024,8 hPa 0,0 l/m 0 min 0 min 34 W/m 19,3 km/h (3 Bft) 100,00 %
02.02.2023 16:10 8,6 C 8,3 C 5,0 C 90 % 1024,8 hPa 0,0 l/m 0 min 0 min 39 W/m 16,1 km/h (3 Bft) 95,65 %
02.02.2023 16:12 8,6 C 8,3 C 5,0 C 90 % 1024,8 hPa 0,0 l/m 0 min 0 min 51 W/m 12,9 km/h (3 Bft) 97,87 %
02.02.2023 16:14 8,6 C 8,3 C 5,0 C 90 % 1024,9 hPa 0,0 l/m 0 min 0 min 53 W/m 12,9 km/h (3 Bft) 97,87 %
02.02.2023 16:16 8,6 C 8,3 C 5,0 C 90 % 1024,9 hPa 0,0 l/m 0 min 0 min 43 W/m 22,5 km/h (4 Bft) 95,74 %
02.02.2023 16:18 8,6 C 7,8 C 5,0 C 90 % 1024,9 hPa 0,0 l/m 0 min 0 min 42 W/m 22,5 km/h (4 Bft) 95,74 %
02.02.2023 16:20 8,6 C 7,8 C 5,0 C 90 % 1024,9 hPa 0,0 l/m 0 min 0 min 34 W/m 19,3 km/h (3 Bft) 97,87 %
02.02.2023 16:22 8,6 C 7,8 C 5,0 C 90 % 1025,0 hPa 0,0 l/m 0 min 0 min 31 W/m 19,3 km/h (3 Bft) 97,83 %
02.02.2023 16:24 8,6 C 7,8 C 5,0 C 90 % 1025,0 hPa 0,0 l/m 0 min 0 min 29 W/m 16,1 km/h (3 Bft) 95,74 %
02.02.2023 16:26 8,5 C 7,8 C 5,0 C 91 % 1025,1 hPa 0,0 l/m 0 min 0 min 27 W/m 16,1 km/h (3 Bft) 97,87 %
02.02.2023 16:28 8,5 C 7,8 C 5,0 C 90 % 1025,1 hPa 0,0 l/m 0 min 0 min 22 W/m 19,3 km/h (3 Bft) 96,00 %
02.02.2023 16:30 8,5 C 7,8 C 5,0 C 91 % 1025,1 hPa 0,0 l/m 0 min 0 min 19 W/m 16,1 km/h (3 Bft) 95,74 %
02.02.2023 16:32 8,5 C 7,8 C 4,4 C 91 % 1025,1 hPa 0,0 l/m 0 min 0 min 16 W/m 16,1 km/h (3 Bft) 97,87 %
02.02.2023 16:34 8,5 C 7,8 C 4,4 C 91 % 1025,1 hPa 0,0 l/m 0 min 0 min 14 W/m 16,1 km/h (3 Bft) 100,00 %
02.02.2023 16:36 8,5 C 7,8 C 4,4 C 91 % 1025,2 hPa 0,0 l/m 0 min 0 min 11 W/m 16,1 km/h (3 Bft) 97,87 %
02.02.2023 16:38 8,4 C 7,8 C 4,4 C 91 % 1025,1 hPa 0,0 l/m 0 min 0 min 11 W/m 12,9 km/h (3 Bft) 97,87 %
02.02.2023 16:40 8,4 C 7,8 C 4,4 C 92 % 1025,2 hPa 0,0 l/m 0 min 0 min 12 W/m 19,3 km/h (3 Bft) 97,87 %
02.02.2023 16:42 8,4 C 7,2 C 4,4 C 92 % 1025,2 hPa 0,0 l/m 0 min 0 min 12 W/m 16,1 km/h (3 Bft) 95,74 %
02.02.2023 16:44 8,3 C 7,2 C 3,9 C 92 % 1025,2 hPa 0,0 l/m 0 min 2 min 12 W/m 19,3 km/h (3 Bft) 95,74 %
02.02.2023 16:46 8,3 C 7,2 C 3,9 C 92 % 1025,2 hPa 0,0 l/m 0 min 2 min 13 W/m 16,1 km/h (3 Bft) 95,74 %
02.02.2023 16:48 8,3 C 7,2 C 3,9 C 92 % 1025,2 hPa 0,0 l/m 0 min 2 min 14 W/m 22,5 km/h (4 Bft) 97,83 %
02.02.2023 16:50 8,2 C 7,2 C 3,9 C 92 % 1025,2 hPa 0,0 l/m 0 min 2 min 15 W/m 12,9 km/h (3 Bft) 97,87 %
02.02.2023 16:52 8,2 C 7,2 C 3,9 C 93 % 1025,3 hPa 0,0 l/m 0 min 2 min 18 W/m 19,3 km/h (3 Bft) 95,74 %
02.02.2023 16:54 8,2 C 7,2 C 3,9 C 93 % 1025,3 hPa 0,0 l/m 0 min 0 min 16 W/m 12,9 km/h (3 Bft) 97,87 %
02.02.2023 16:56 8,1 C 7,2 C 3,9 C 93 % 1025,3 hPa 0,0 l/m 0 min 0 min 15 W/m 6,4 km/h (2 Bft) 97,87 %
02.02.2023 16:58 8,1 C 7,2 C 3,9 C 93 % 1025,4 hPa 0,0 l/m 0 min 0 min 12 W/m 12,9 km/h (3 Bft) 97,87 %
02.02.2023 17:00 8,1 C 7,2 C 3,9 C 93 % 1025,3 hPa 0,0 l/m 0 min 0 min 9 W/m 16,1 km/h (3 Bft) 97,87 %
02.02.2023 17:02 8,1 C 7,2 C 3,9 C 93 % 1025,4 hPa 0,0 l/m 0 min 0 min 7 W/m 12,9 km/h (3 Bft) 93,48 %
02.02.2023 17:04 8,1 C 7,2 C 3,9 C 94 % 1025,3 hPa 0,0 l/m 0 min 0 min 5 W/m 12,9 km/h (3 Bft) 97,87 %
02.02.2023 17:06 8,0 C 7,2 C 3,9 C 94 % 1025,4 hPa 0,0 l/m 0 min 0 min 4 W/m 6,4 km/h (2 Bft) 97,87 %
02.02.2023 17:08 8,0 C 7,2 C 3,9 C 94 % 1025,4 hPa 0,0 l/m 0 min 0 min 0 W/m 12,9 km/h (3 Bft) 97,87 %
02.02.2023 17:10 8,0 C 7,2 C 3,9 C 94 % 1025,5 hPa 0,0 l/m 0 min 0 min 0 W/m 9,7 km/h (2 Bft) 97,87 %
02.02.2023 17:12 8,0 C 7,2 C 3,9 C 94 % 1025,5 hPa 0,0 l/m 0 min 0 min 0 W/m 12,9 km/h (3 Bft) 95,74 %
02.02.2023 17:14 8,0 C 7,2 C 3,9 C 94 % 1025,6 hPa 0,0 l/m 0 min 0 min 0 W/m 12,9 km/h (3 Bft) 95,65 %
02.02.2023 17:16 7,9 C 7,2 C 3,9 C 94 % 1025,5 hPa 0,0 l/m 0 min 0 min 0 W/m 16,1 km/h (3 Bft) 95,74 %
02.02.2023 17:18 7,9 C 7,2 C 3,9 C 94 % 1025,6 hPa 0,0 l/m 0 min 0 min 0 W/m 9,7 km/h (2 Bft) 95,74 %
02.02.2023 17:20 7,9 C 7,2 C 3,9 C 94 % 1025,6 hPa 0,0 l/m 0 min 0 min 0 W/m 16,1 km/h (3 Bft) 95,74 %
02.02.2023 17:22 7,9 C 7,2 C 3,9 C 95 % 1025,6 hPa 0,0 l/m 0 min 0 min 0 W/m 16,1 km/h (3 Bft) 95,74 %
02.02.2023 17:24 7,9 C 7,2 C 3,9 C 95 % 1025,7 hPa 0,0 l/m 0 min 0 min 0 W/m 12,9 km/h (3 Bft) 97,87 %
02.02.2023 17:26 7,9 C 7,2 C 3,9 C 95 % 1025,6 hPa 0,0 l/m 0 min 0 min 0 W/m 9,7 km/h (2 Bft) 95,65 %
02.02.2023 17:28 7,9 C 7,2 C 3,9 C 95 % 1025,6 hPa 0,0 l/m 0 min 0 min 0 W/m 12,9 km/h (3 Bft) 97,87 %
02.02.2023 17:30 7,9 C 7,2 C 3,9 C 95 % 1025,7 hPa 0,0 l/m 0 min 0 min 0 W/m 6,4 km/h (2 Bft) 97,87 %
02.02.2023 17:32 7,9 C 7,2 C 3,9 C 95 % 1025,7 hPa 0,0 l/m 0 min 0 min 0 W/m 12,9 km/h (3 Bft) 95,74 %
02.02.2023 17:34 7,9 C 7,2 C 3,9 C 95 % 1025,7 hPa 0,0 l/m 0 min 0 min 0 W/m 12,9 km/h (3 Bft) 93,62 %
02.02.2023 17:36 7,9 C 7,2 C 3,9 C 95 % 1025,7 hPa 0,0 l/m 0 min 2 min 0 W/m 12,9 km/h (3 Bft) 95,74 %
02.02.2023 17:38 7,9 C 7,2 C 3,9 C 95 % 1025,7 hPa 0,0 l/m 0 min 0 min 0 W/m 16,1 km/h (3 Bft) 97,87 %
02.02.2023 17:40 7,8 C 6,7 C 3,9 C 95 % 1025,8 hPa 0,0 l/m 0 min 2 min 0 W/m 19,3 km/h (3 Bft) 97,83 %
02.02.2023 17:42 7,8 C 6,7 C 3,9 C 95 % 1025,8 hPa 0,0 l/m 0 min 0 min 0 W/m 6,4 km/h (2 Bft) 95,74 %
02.02.2023 17:44 7,8 C 6,7 C 3,9 C 95 % 1025,9 hPa 0,0 l/m 0 min 0 min 0 W/m 12,9 km/h (3 Bft) 97,87 %
02.02.2023 17:46 7,8 C 6,7 C 3,9 C 95 % 1025,9 hPa 0,0 l/m 0 min 0 min 0 W/m 6,4 km/h (2 Bft) 97,87 %
02.02.2023 17:48 7,8 C 6,7 C 3,9 C 96 % 1025,9 hPa 0,0 l/m 0 min 0 min 0 W/m 19,3 km/h (3 Bft) 97,87 %
02.02.2023 17:50 7,8 C 6,7 C 3,9 C 96 % 1025,9 hPa 0,0 l/m 0 min 0 min 0 W/m 6,4 km/h (2 Bft) 95,74 %
02.02.2023 17:52 7,8 C 6,7 C 3,9 C 96 % 1025,9 hPa 0,2 l/m 0 min 0 min 0 W/m 12,9 km/h (3 Bft) 93,62 %
02.02.2023 17:54 7,8 C 6,7 C 3,9 C 96 % 1025,9 hPa 0,0 l/m 0 min 0 min 0 W/m 12,9 km/h (3 Bft) 95,65 %
02.02.2023 17:56 7,8 C 6,7 C 3,9 C 96 % 1025,9 hPa 0,0 l/m 0 min 0 min 0 W/m 12,9 km/h (3 Bft) 97,87 %
02.02.2023 17:58 7,8 C 6,7 C 3,9 C 96 % 1025,9 hPa 0,0 l/m 0 min 0 min 0 W/m 12,9 km/h (3 Bft) 97,87 %
02.02.2023 18:00 7,8 C 6,7 C 3,9 C 96 % 1025,8 hPa 0,0 l/m 0 min 0 min 0 W/m 6,4 km/h (2 Bft) 95,74 %
02.02.2023 18:02 7,8 C 6,7 C 3,9 C 96 % 1025,8 hPa 0,0 l/m 0 min 2 min 0 W/m 12,9 km/h (3 Bft) 95,74 %
02.02.2023 18:04 7,7 C 6,7 C 3,9 C 96 % 1025,9 hPa 0,0 l/m 0 min 0 min 0 W/m 12,9 km/h (3 Bft) 95,74 %
02.02.2023 18:07 7,7 C 6,7 C 3,9 C 96 % 1025,9 hPa 0,2 l/m 0 min 0 min 0 W/m 16,1 km/h (3 Bft) 95,71 %
02.02.2023 18:08 7,7 C 6,7 C 3,9 C 96 % 1025,9 hPa 0,0 l/m 0 min 1 min 0 W/m 6,4 km/h (2 Bft) 100,00 %
02.02.2023 18:10 7,7 C 6,7 C 3,9 C 96 % 1026,0 hPa 0,0 l/m 0 min 0 min 0 W/m 16,1 km/h (3 Bft) 97,87 %
02.02.2023 18:12 7,7 C 6,7 C 3,9 C 96 % 1026,0 hPa 0,0 l/m 0 min 0 min 0 W/m 6,4 km/h (2 Bft) 95,74 %
02.02.2023 18:14 7,7 C 6,7 C 3,9 C 96 % 1025,9 hPa 0,0 l/m 0 min 0 min 0 W/m 16,1 km/h (3 Bft) 97,87 %
02.02.2023 18:16 7,7 C 6,7 C 3,9 C 96 % 1025,9 hPa 0,0 l/m 0 min 2 min 0 W/m 19,3 km/h (3 Bft) 97,87 %
02.02.2023 18:18 7,7 C 6,7 C 3,9 C 97 % 1025,9 hPa 0,0 l/m 0 min 2 min 0 W/m 12,9 km/h (3 Bft) 97,87 %
02.02.2023 18:20 7,7 C 6,7 C 3,9 C 97 % 1025,9 hPa 0,0 l/m 0 min 2 min 0 W/m 12,9 km/h (3 Bft) 93,48 %
02.02.2023 18:22 7,7 C 6,7 C 3,9 C 97 % 1026,0 hPa 0,0 l/m 0 min 2 min 0 W/m 16,1 km/h (3 Bft) 97,87 %
02.02.2023 18:24 7,7 C 6,7 C 3,9 C 97 % 1025,9 hPa 0,0 l/m 0 min 2 min 0 W/m 12,9 km/h (3 Bft) 97,87 %
02.02.2023 18:26 7,7 C 6,7 C 3,9 C 97 % 1025,9 hPa 0,0 l/m 0 min 2 min 0 W/m 16,1 km/h (3 Bft) 97,87 %
02.02.2023 18:28 7,7 C 6,7 C 3,9 C 97 % 1025,9 hPa 0,2 l/m 0 min 2 min 0 W/m 9,7 km/h (2 Bft) 100,00 %
02.02.2023 18:30 7,7 C 6,7 C 3,9 C 97 % 1025,9 hPa 0,0 l/m 0 min 2 min 0 W/m 12,9 km/h (3 Bft) 100,00 %
02.02.2023 18:32 7,7 C 6,7 C 3,9 C 97 % 1026,0 hPa 0,0 l/m 0 min 0 min 0 W/m 16,1 km/h (3 Bft) 97,83 %
02.02.2023 18:34 7,7 C 6,7 C 3,9 C 97 % 1026,0 hPa 0,0 l/m 0 min 0 min 0 W/m 6,4 km/h (2 Bft) 100,00 %
02.02.2023 18:36 7,7 C 6,7 C 3,9 C 97 % 1026,0 hPa 0,0 l/m 0 min 2 min 0 W/m 12,9 km/h (3 Bft) 100,00 %
02.02.2023 18:38 7,7 C 6,7 C 3,9 C 97 % 1026,0 hPa 0,0 l/m 0 min 0 min 0 W/m 19,3 km/h (3 Bft) 97,87 %
02.02.2023 18:40 7,7 C 6,7 C 3,9 C 97 % 1026,0 hPa 0,0 l/m 0 min 0 min 0 W/m 16,1 km/h (3 Bft) 97,87 %
02.02.2023 18:42 7,7 C 6,7 C 3,9 C 97 % 1026,0 hPa 0,0 l/m 0 min 0 min 0 W/m 12,9 km/h (3 Bft) 100,00 %
02.02.2023 18:44 7,7 C 6,7 C 3,9 C 97 % 1026,0 hPa 0,2 l/m 0 min 2 min 0 W/m 16,1 km/h (3 Bft) 95,74 %
02.02.2023 18:46 7,7 C 6,7 C 3,9 C 97 % 1026,0 hPa 0,0 l/m 0 min 2 min 0 W/m 12,9 km/h (3 Bft) 95,65 %
02.02.2023 18:48 7,7 C 6,7 C 3,9 C 97 % 1026,0 hPa 0,0 l/m 0 min 2 min 0 W/m 16,1 km/h (3 Bft) 100,00 %
02.02.2023 18:50 7,7 C 6,7 C 3,9 C 97 % 1026,0 hPa 0,0 l/m 0 min 0 min 0 W/m 16,1 km/h (3 Bft) 97,87 %
02.02.2023 18:52 7,7 C 7,2 C 3,9 C 97 % 1026,0 hPa 0,0 l/m 0 min 0 min 0 W/m 9,7 km/h (2 Bft) 100,00 %
02.02.2023 18:54 7,7 C 7,2 C 3,9 C 97 % 1026,0 hPa 0,0 l/m 0 min 2 min 0 W/m 19,3 km/h (3 Bft) 97,87 %
02.02.2023 18:56 7,7 C 7,2 C 3,9 C 97 % 1026,0 hPa 0,0 l/m 0 min 2 min 0 W/m 12,9 km/h (3 Bft) 97,87 %
02.02.2023 18:58 7,7 C 7,2 C 3,9 C 97 % 1026,0 hPa 0,0 l/m 0 min 2 min 0 W/m 12,9 km/h (3 Bft) 100,00 %
02.02.2023 19:00 7,7 C 6,7 C 3,9 C 97 % 1026,1 hPa 0,0 l/m 0 min 2 min 0 W/m 9,7 km/h (2 Bft) 100,00 %
02.02.2023 19:02 7,7 C 7,2 C 3,9 C 97 % 1026,2 hPa 0,0 l/m 0 min 2 min 0 W/m 12,9 km/h (3 Bft) 97,87 %
02.02.2023 19:04 7,7 C 7,2 C 3,9 C 97 % 1026,1 hPa 0,0 l/m 0 min 2 min 0 W/m 19,3 km/h (3 Bft) 97,87 %
02.02.2023 19:06 7,7 C 7,2 C 3,9 C 97 % 1026,2 hPa 0,0 l/m 0 min 0 min 0 W/m 16,1 km/h (3 Bft) 97,87 %
02.02.2023 19:08 7,7 C 6,7 C 3,9 C 97 % 1026,2 hPa 0,0 l/m 0 min 2 min 0 W/m 12,9 km/h (3 Bft) 97,87 %
02.02.2023 19:10 7,7 C 7,2 C 3,9 C 97 % 1026,2 hPa 0,0 l/m 0 min 0 min 0 W/m 6,4 km/h (2 Bft) 100,00 %
02.02.2023 19:12 7,7 C 6,7 C 3,9 C 97 % 1026,1 hPa 0,0 l/m 0 min 2 min 0 W/m 12,9 km/h (3 Bft) 97,83 %
02.02.2023 19:14 7,7 C 7,2 C 3,9 C 97 % 1026,2 hPa 0,0 l/m 0 min 2 min 0 W/m 9,7 km/h (2 Bft) 100,00 %
02.02.2023 19:16 7,7 C 6,7 C 3,9 C 97 % 1026,2 hPa 0,2 l/m 0 min 2 min 0 W/m 12,9 km/h (3 Bft) 100,00 %
02.02.2023 19:18 7,7 C 6,7 C 3,9 C 97 % 1026,2 hPa 0,0 l/m 0 min 2 min 0 W/m 9,7 km/h (2 Bft) 97,87 %
02.02.2023 19:20 7,7 C 6,7 C 3,9 C 97 % 1026,2 hPa 0,0 l/m 0 min 2 min 0 W/m 12,9 km/h (3 Bft) 100,00 %
02.02.2023 19:22 7,7 C 6,7 C 3,9 C 97 % 1026,2 hPa 0,2 l/m 0 min 2 min 0 W/m 12,9 km/h (3 Bft) 100,00 %
02.02.2023 19:24 7,7 C 6,7 C 3,9 C 97 % 1026,1 hPa 0,0 l/m 0 min 0 min 0 W/m 6,4 km/h (2 Bft) 100,00 %
02.02.2023 19:26 7,7 C 6,7 C 3,9 C 97 % 1026,1 hPa 0,0 l/m 0 min 0 min 0 W/m 6,4 km/h (2 Bft) 100,00 %
02.02.2023 19:28 7,7 C 6,7 C 3,9 C 97 % 1026,1 hPa 0,0 l/m 0 min 0 min 0 W/m 6,4 km/h (2 Bft) 97,87 %
02.02.2023 19:30 7,7 C 6,7 C 3,9 C 98 % 1026,1 hPa 0,0 l/m 0 min 0 min 0 W/m 12,9 km/h (3 Bft) 97,87 %
02.02.2023 19:32 7,7 C 6,7 C 3,9 C 98 % 1026,1 hPa 0,0 l/m 0 min 0 min 0 W/m 12,9 km/h (3 Bft) 95,74 %
02.02.2023 19:34 7,7 C 6,7 C 3,9 C 98 % 1026,1 hPa 0,0 l/m 0 min 0 min 0 W/m 12,9 km/h (3 Bft) 97,87 %
02.02.2023 19:36 7,7 C 6,7 C 3,9 C 98 % 1026,1 hPa 0,0 l/m 0 min 0 min 0 W/m 16,1 km/h (3 Bft) 95,74 %
02.02.2023 19:38 7,7 C 6,7 C 3,9 C 98 % 1026,1 hPa 0,0 l/m 0 min 0 min 0 W/m 12,9 km/h (3 Bft) 95,65 %
02.02.2023 19:40 7,7 C 7,2 C 3,9 C 98 % 1026,1 hPa 0,0 l/m 0 min 0 min 0 W/m 6,4 km/h (2 Bft) 95,74 %
02.02.2023 19:42 7,7 C 7,2 C 3,9 C 98 % 1026,1 hPa 0,0 l/m 0 min 0 min 0 W/m 6,4 km/h (2 Bft) 97,87 %
02.02.2023 19:44 7,7 C 7,2 C 3,9 C 98 % 1026,1 hPa 0,0 l/m 0 min 0 min 0 W/m 9,7 km/h (2 Bft) 95,74 %
02.02.2023 19:46 7,7 C 7,2 C 3,9 C 98 % 1026,1 hPa 0,0 l/m 0 min 0 min 0 W/m 12,9 km/h (3 Bft) 95,74 %
02.02.2023 19:48 7,6 C 7,2 C 3,9 C 98 % 1026,1 hPa 0,0 l/m 0 min 0 min 0 W/m 9,7 km/h (2 Bft) 89,36 %
02.02.2023 19:50 7,6 C 7,2 C 3,9 C 98 % 1026,1 hPa 0,0 l/m 0 min 0 min 0 W/m 6,4 km/h (2 Bft) 95,65 %
02.02.2023 19:52 7,6 C 7,2 C 3,9 C 98 % 1026,2 hPa 0,0 l/m 0 min 0 min 0 W/m 9,7 km/h (2 Bft) 93,62 %
02.02.2023 19:54 7,6 C 7,2 C 3,9 C 98 % 1026,1 hPa 0,0 l/m 0 min 0 min 0 W/m 6,4 km/h (2 Bft) 91,49 %
02.02.2023 19:56 7,6 C 7,2 C 3,9 C 98 % 1026,2 hPa 0,0 l/m 0 min 0 min 0 W/m 12,9 km/h (3 Bft) 93,62 %
02.02.2023 19:58 7,6 C 7,2 C 3,9 C 98 % 1026,0 hPa 0,0 l/m 0 min 0 min 0 W/m 12,9 km/h (3 Bft) 91,49 %
02.02.2023 20:00 7,6 C 7,2 C 3,9 C 98 % 1026,1 hPa 0,0 l/m 0 min 0 min 0 W/m 16,1 km/h (3 Bft) 93,62 %
02.02.2023 20:02 7,6 C 7,2 C 3,9 C 98 % 1026,0 hPa 0,0 l/m 0 min 0 min 0 W/m 9,7 km/h (2 Bft) 93,62 %
02.02.2023 20:04 7,6 C 6,7 C 3,9 C 98 % 1026,0 hPa 0,0 l/m 0 min 0 min 0 W/m 0,0 km/h (0 Bft) 93,48 %
02.02.2023 20:06 7,6 C 6,7 C 3,9 C 98 % 1026,0 hPa 0,0 l/m 0 min 0 min 0 W/m 6,4 km/h (2 Bft) 93,62 %
02.02.2023 20:08 7,6 C 6,7 C 3,9 C 98 % 1026,0 hPa 0,0 l/m 0 min 0 min 0 W/m 9,7 km/h (2 Bft) 87,23 %
02.02.2023 20:10 7,6 C 6,7 C 3,9 C 98 % 1026,0 hPa 0,0 l/m 0 min 0 min 0 W/m 6,4 km/h (2 Bft) 93,62 %
02.02.2023 20:12 7,6 C 6,7 C 3,9 C 98 % 1026,0 hPa 0,0 l/m 0 min 0 min 0 W/m 12,9 km/h (3 Bft) 91,49 %
02.02.2023 20:14 7,6 C 6,7 C 3,9 C 98 % 1026,0 hPa 0,0 l/m 0 min 0 min 0 W/m 12,9 km/h (3 Bft) 93,62 %
02.02.2023 20:16 7,5 C 6,7 C 3,9 C 98 % 1026,1 hPa 0,0 l/m 0 min 0 min 0 W/m 9,7 km/h (2 Bft) 93,62 %
02.02.2023 20:18 7,5 C 6,7 C 3,9 C 98 % 1026,1 hPa 0,0 l/m 0 min 0 min 0 W/m 6,4 km/h (2 Bft) 97,83 %
02.02.2023 20:20 7,4 C 6,7 C 3,9 C 97 % 1026,1 hPa 0,0 l/m 0 min 0 min 0 W/m 16,1 km/h (3 Bft) 97,87 %
02.02.2023 20:22 7,4 C 6,7 C 3,9 C 98 % 1026,1 hPa 0,0 l/m 0 min 0 min 0 W/m 12,9 km/h (3 Bft) 95,74 %
02.02.2023 20:24 7,4 C 6,7 C 3,9 C 97 % 1026,1 hPa 0,0 l/m 0 min 0 min 0 W/m 16,1 km/h (3 Bft) 95,74 %
02.02.2023 20:26 7,4 C 6,7 C 3,9 C 97 % 1026,0 hPa 0,0 l/m 0 min 0 min 0 W/m 9,7 km/h (2 Bft) 97,87 %
02.02.2023 20:28 7,4 C 6,7 C 3,9 C 97 % 1026,1 hPa 0,0 l/m 0 min 0 min 0 W/m 19,3 km/h (3 Bft) 95,74 %
02.02.2023 20:30 7,4 C 6,7 C 3,9 C 97 % 1026,1 hPa 0,0 l/m 0 min 0 min 0 W/m 12,9 km/h (3 Bft) 100,00 %
02.02.2023 20:32 7,3 C 6,7 C 3,9 C 97 % 1026,1 hPa 0,0 l/m 0 min 0 min 0 W/m 12,9 km/h (3 Bft) 95,65 %
02.02.2023 20:34 7,3 C 6,7 C 3,9 C 97 % 1026,2 hPa 0,0 l/m 0 min 0 min 0 W/m 12,9 km/h (3 Bft) 97,87 %
02.02.2023 20:36 7,3 C 6,7 C 3,9 C 97 % 1026,2 hPa 0,0 l/m 0 min 0 min 0 W/m 19,3 km/h (3 Bft) 100,00 %
02.02.2023 20:38 7,4 C 6,7 C 3,9 C 97 % 1026,3 hPa 0,0 l/m 0 min 2 min 0 W/m 12,9 km/h (3 Bft) 100,00 %
02.02.2023 20:40 7,4 C 6,7 C 3,9 C 97 % 1026,2 hPa 0,0 l/m 0 min 2 min 0 W/m 12,9 km/h (3 Bft) 100,00 %
02.02.2023 20:42 7,4 C 6,7 C 3,9 C 97 % 1026,3 hPa 0,0 l/m 0 min 2 min 0 W/m 19,3 km/h (3 Bft) 100,00 %
02.02.2023 20:44 7,4 C 6,7 C 3,9 C 97 % 1026,3 hPa 0,0 l/m 0 min 2 min 0 W/m 12,9 km/h (3 Bft) 100,00 %
02.02.2023 20:46 7,4 C 6,7 C 3,9 C 97 % 1026,3 hPa 0,0 l/m 0 min 2 min 0 W/m 16,1 km/h (3 Bft) 97,87 %
02.02.2023 20:48 7,5 C 6,7 C 3,9 C 98 % 1026,2 hPa 0,0 l/m 0 min 2 min 0 W/m 12,9 km/h (3 Bft) 100,00 %
02.02.2023 20:50 7,5 C 7,2 C 3,9 C 98 % 1026,3 hPa 0,0 l/m 0 min 2 min 0 W/m 12,9 km/h (3 Bft) 97,87 %
02.02.2023 20:52 7,6 C 7,2 C 3,9 C 98 % 1026,3 hPa 0,0 l/m 0 min 2 min 0 W/m 12,9 km/h (3 Bft) 100,00 %
02.02.2023 20:54 7,6 C 7,2 C 3,9 C 98 % 1026,3 hPa 0,0 l/m 0 min 2 min 0 W/m 16,1 km/h (3 Bft) 100,00 %
02.02.2023 20:56 7,6 C 7,2 C 3,9 C 98 % 1026,2 hPa 0,0 l/m 0 min 0 min 0 W/m 12,9 km/h (3 Bft) 100,00 %
02.02.2023 20:58 7,6 C 7,2 C 3,9 C 98 % 1026,2 hPa 0,0 l/m 0 min 0 min 0 W/m 16,1 km/h (3 Bft) 100,00 %
02.02.2023 21:00 7,6 C 7,2 C 3,9 C 98 % 1026,2 hPa 0,0 l/m 0 min 0 min 0 W/m 9,7 km/h (2 Bft) 100,00 %
02.02.2023 21:02 7,6 C 7,2 C 3,9 C 98 % 1026,2 hPa 0,0 l/m 0 min 0 min 0 W/m 12,9 km/h (3 Bft) 97,87 %
02.02.2023 21:04 7,6 C 7,2 C 3,9 C 97 % 1026,2 hPa 0,0 l/m 0 min 0 min 0 W/m 16,1 km/h (3 Bft) 100,00 %
02.02.2023 21:06 7,6 C 7,2 C 3,9 C 97 % 1026,2 hPa 0,0 l/m 0 min 0 min 0 W/m 12,9 km/h (3 Bft) 98,31 %
02.02.2023 21:08 7,6 C 7,2 C 3,9 C 97 % 1026,2 hPa 0,0 l/m 0 min 0 min 0 W/m 6,4 km/h (2 Bft) 100,00 %
02.02.2023 21:10 7,6 C 6,7 C 3,9 C 97 % 1026,1 hPa 0,0 l/m 0 min 0 min 0 W/m 12,9 km/h (3 Bft) 100,00 %
02.02.2023 21:12 7,6 C 6,7 C 3,9 C 97 % 1026,0 hPa 0,0 l/m 0 min 0 min 0 W/m 6,4 km/h (2 Bft) 100,00 %
02.02.2023 21:14 7,6 C 7,2 C 3,9 C 97 % 1026,0 hPa 0,0 l/m 0 min 0 min 0 W/m 12,9 km/h (3 Bft) 97,87 %
02.02.2023 21:16 7,6 C 7,2 C 3,9 C 97 % 1026,0 hPa 0,0 l/m 0 min 0 min 0 W/m 9,7 km/h (2 Bft) 100,00 %
02.02.2023 21:18 7,6 C 7,2 C 3,9 C 97 % 1026,1 hPa 0,0 l/m 0 min 0 min 0 W/m 12,9 km/h (3 Bft) 95,74 %
02.02.2023 21:20 7,6 C 7,2 C 3,9 C 97 % 1026,1 hPa 0,0 l/m 0 min 0 min 0 W/m 12,9 km/h (3 Bft) 100,00 %
02.02.2023 21:22 7,6 C 7,2 C 3,9 C 97 % 1026,1 hPa 0,0 l/m 0 min 0 min 0 W/m 12,9 km/h (3 Bft) 100,00 %
02.02.2023 21:24 7,6 C 7,2 C 3,9 C 97 % 1026,1 hPa 0,0 l/m 0 min 0 min 0 W/m 9,7 km/h (2 Bft) 100,00 %
02.02.2023 21:26 7,6 C 7,2 C 3,9 C 97 % 1026,1 hPa 0,0 l/m 0 min 2 min 0 W/m 6,4 km/h (2 Bft) 97,83 %
02.02.2023 21:28 7,6 C 7,2 C 3,9 C 97 % 1026,1 hPa 0,2 l/m 0 min 2 min 0 W/m 12,9 km/h (3 Bft) 100,00 %
02.02.2023 21:30 7,6 C 7,2 C 3,9 C 97 % 1026,1 hPa 0,0 l/m 0 min 2 min 0 W/m 6,4 km/h (2 Bft) 100,00 %
02.02.2023 21:32 7,6 C 7,2 C 3,9 C 97 % 1026,1 hPa 0,0 l/m 0 min 2 min 0 W/m 12,9 km/h (3 Bft) 97,87 %
02.02.2023 21:34 7,7 C 7,2 C 3,9 C 97 % 1026,0 hPa 0,0 l/m 0 min 0 min 0 W/m 9,7 km/h (2 Bft) 100,00 %
02.02.2023 21:36 7,6 C 7,2 C 3,9 C 97 % 1026,0 hPa 0,0 l/m 0 min 0 min 0 W/m 9,7 km/h (2 Bft) 95,74 %
02.02.2023 21:38 7,7 C 7,2 C 3,9 C 97 % 1026,0 hPa 0,0 l/m 0 min 0 min 0 W/m 6,4 km/h (2 Bft) 97,83 %
02.02.2023 21:40 7,7 C 7,2 C 3,9 C 97 % 1026,0 hPa 0,0 l/m 0 min 0 min 0 W/m 12,9 km/h (3 Bft) 97,87 %
02.02.2023 21:42 7,7 C 7,2 C 3,9 C 97 % 1025,9 hPa 0,0 l/m 0 min 0 min 0 W/m 9,7 km/h (2 Bft) 97,87 %
02.02.2023 21:44 7,7 C 7,2 C 3,9 C 97 % 1025,9 hPa 0,0 l/m 0 min 0 min 0 W/m 9,7 km/h (2 Bft) 97,87 %
02.02.2023 21:46 7,7 C 7,2 C 3,9 C 97 % 1026,0 hPa 0,0 l/m 0 min 0 min 0 W/m 6,4 km/h (2 Bft) 97,87 %
02.02.2023 21:48 7,7 C 7,2 C 3,9 C 97 % 1026,0 hPa 0,0 l/m 0 min 0 min 0 W/m 6,4 km/h (2 Bft) 95,74 %
02.02.2023 21:50 7,7 C 7,2 C 3,9 C 97 % 1025,9 hPa 0,0 l/m 0 min 0 min 0 W/m 12,9 km/h (3 Bft) 95,65 %
02.02.2023 21:52 7,7 C 7,2 C 3,9 C 97 % 1026,0 hPa 0,0 l/m 0 min 0 min 0 W/m 9,7 km/h (2 Bft) 97,87 %
02.02.2023 21:54 7,7 C 7,2 C 3,9 C 97 % 1026,0 hPa 0,0 l/m 0 min 0 min 0 W/m 19,3 km/h (3 Bft) 95,74 %
02.02.2023 21:56 7,7 C 7,2 C 3,9 C 97 % 1026,0 hPa 0,0 l/m 0 min 0 min 0 W/m 19,3 km/h (3 Bft) 95,74 %
02.02.2023 21:58 7,7 C 7,2 C 3,9 C 97 % 1026,0 hPa 0,0 l/m 0 min 0 min 0 W/m 19,3 km/h (3 Bft) 97,87 %
02.02.2023 22:00 7,7 C 7,2 C 3,9 C 97 % 1026,1 hPa 0,0 l/m 0 min 0 min 0 W/m 9,7 km/h (2 Bft) 97,87 %
02.02.2023 22:02 7,7 C 7,2 C 3,9 C 97 % 1026,1 hPa 0,0 l/m 0 min 0 min 0 W/m 6,4 km/h (2 Bft) 97,87 %
02.02.2023 22:04 7,7 C 7,2 C 3,9 C 97 % 1026,1 hPa 0,0 l/m 0 min 0 min 0 W/m 12,9 km/h (3 Bft) 95,65 %
02.02.2023 22:06 7,7 C 7,2 C 3,9 C 97 % 1026,1 hPa 0,0 l/m 0 min 0 min 0 W/m 12,9 km/h (3 Bft) 94,92 %
02.02.2023 22:08 7,7 C 7,2 C 3,9 C 97 % 1026,2 hPa 0,0 l/m 0 min 0 min 0 W/m 12,9 km/h (3 Bft) 100,00 %
02.02.2023 22:10 7,7 C 7,2 C 3,9 C 97 % 1026,2 hPa 0,0 l/m 0 min 0 min 0 W/m 6,4 km/h (2 Bft) 100,00 %
02.02.2023 22:12 7,8 C 7,2 C 3,9 C 97 % 1026,2 hPa 0,0 l/m 0 min 0 min 0 W/m 12,9 km/h (3 Bft) 97,87 %
02.02.2023 22:14 7,8 C 7,2 C 3,9 C 97 % 1026,3 hPa 0,0 l/m 0 min 0 min 0 W/m 16,1 km/h (3 Bft) 100,00 %
02.02.2023 22:16 7,8 C 7,2 C 4,4 C 97 % 1026,3 hPa 0,0 l/m 0 min 0 min 0 W/m 12,9 km/h (3 Bft) 97,87 %
02.02.2023 22:18 7,8 C 7,2 C 4,4 C 97 % 1026,3 hPa 0,0 l/m 0 min 0 min 0 W/m 16,1 km/h (3 Bft) 100,00 %
02.02.2023 22:20 7,8 C 7,2 C 4,4 C 97 % 1026,3 hPa 0,0 l/m 0 min 0 min 0 W/m 12,9 km/h (3 Bft) 100,00 %
02.02.2023 22:22 7,8 C 7,2 C 4,4 C 96 % 1026,4 hPa 0,0 l/m 0 min 0 min 0 W/m 12,9 km/h (3 Bft) 95,74 %
02.02.2023 22:24 7,8 C 7,2 C 4,4 C 96 % 1026,4 hPa 0,0 l/m 0 min 0 min 0 W/m 22,5 km/h (4 Bft) 97,87 %
02.02.2023 22:26 7,9 C 7,2 C 4,4 C 96 % 1026,4 hPa 0,0 l/m 0 min 0 min 0 W/m 12,9 km/h (3 Bft) 97,87 %
02.02.2023 22:28 7,9 C 7,2 C 4,4 C 96 % 1026,5 hPa 0,0 l/m 0 min 0 min 0 W/m 16,1 km/h (3 Bft) 97,87 %
02.02.2023 22:30 7,9 C 7,2 C 4,4 C 96 % 1026,5 hPa 0,0 l/m 0 min 0 min 0 W/m 12,9 km/h (3 Bft) 93,48 %
02.02.2023 22:32 7,9 C 7,2 C 4,4 C 96 % 1026,5 hPa 0,0 l/m 0 min 0 min 0 W/m 12,9 km/h (3 Bft) 93,62 %
02.02.2023 22:34 7,9 C 7,2 C 4,4 C 96 % 1026,7 hPa 0,0 l/m 0 min 0 min 0 W/m 19,3 km/h (3 Bft) 95,74 %
02.02.2023 22:36 7,9 C 7,2 C 4,4 C 96 % 1026,6 hPa 0,0 l/m 0 min 0 min 0 W/m 16,1 km/h (3 Bft) 95,74 %
02.02.2023 22:38 7,9 C 7,2 C 4,4 C 96 % 1026,6 hPa 0,0 l/m 0 min 0 min 0 W/m 6,4 km/h (2 Bft) 95,74 %
02.02.2023 22:40 7,9 C 7,2 C 4,4 C 96 % 1026,6 hPa 0,0 l/m 0 min 0 min 0 W/m 6,4 km/h (2 Bft) 95,74 %
02.02.2023 22:42 7,9 C 7,2 C 4,4 C 96 % 1026,6 hPa 0,0 l/m 0 min 0 min 0 W/m 12,9 km/h (3 Bft) 97,87 %
02.02.2023 22:44 8,0 C 7,2 C 4,4 C 96 % 1026,5 hPa 0,0 l/m 0 min 0 min 0 W/m 6,4 km/h (2 Bft) 95,65 %
02.02.2023 22:46 8,0 C 7,2 C 4,4 C 96 % 1026,5 hPa 0,0 l/m 0 min 0 min 0 W/m 6,4 km/h (2 Bft) 95,74 %
02.02.2023 22:48 8,0 C 7,2 C 4,4 C 96 % 1026,5 hPa 0,0 l/m 0 min 0 min 0 W/m 12,9 km/h (3 Bft) 89,36 %
02.02.2023 22:50 8,0 C 7,2 C 4,4 C 96 % 1026,5 hPa 0,0 l/m 0 min 0 min 0 W/m 6,4 km/h (2 Bft) 95,74 %
02.02.2023 22:52 8,0 C 7,2 C 4,4 C 96 % 1026,5 hPa 0,0 l/m 0 min 0 min 0 W/m 19,3 km/h (3 Bft) 93,62 %
02.02.2023 22:54 8,0 C 7,2 C 4,4 C 96 % 1026,5 hPa 0,0 l/m 0 min 0 min 0 W/m 16,1 km/h (3 Bft) 93,62 %
02.02.2023 22:56 8,0 C 7,2 C 4,4 C 96 % 1026,5 hPa 0,0 l/m 0 min 0 min 0 W/m 6,4 km/h (2 Bft) 91,30 %
02.02.2023 22:58 8,0 C 7,2 C 4,4 C 96 % 1026,5 hPa 0,0 l/m 0 min 0 min 0 W/m 6,4 km/h (2 Bft) 93,62 %
02.02.2023 23:00 8,0 C 7,2 C 4,4 C 95 % 1026,5 hPa 0,0 l/m 0 min 0 min 0 W/m 12,9 km/h (3 Bft) 97,87 %
02.02.2023 23:02 8,0 C 7,2 C 4,4 C 95 % 1026,6 hPa 0,0 l/m 0 min 0 min 0 W/m 12,9 km/h (3 Bft) 97,87 %
02.02.2023 23:04 8,1 C 7,2 C 4,4 C 95 % 1026,5 hPa 0,0 l/m 0 min 0 min 0 W/m 6,4 km/h (2 Bft) 97,87 %
02.02.2023 23:06 8,1 C 7,2 C 4,4 C 95 % 1026,4 hPa 0,0 l/m 0 min 0 min 0 W/m 12,9 km/h (3 Bft) 93,62 %
02.02.2023 23:08 8,1 C 7,2 C 4,4 C 96 % 1026,5 hPa 0,0 l/m 0 min 0 min 0 W/m 16,1 km/h (3 Bft) 91,30 %
02.02.2023 23:10 8,1 C 7,2 C 4,4 C 95 % 1026,4 hPa 0,0 l/m 0 min 0 min 0 W/m 22,5 km/h (4 Bft) 91,49 %
02.02.2023 23:12 8,1 C 7,2 C 4,4 C 95 % 1026,3 hPa 0,0 l/m 0 min 0 min 0 W/m 12,9 km/h (3 Bft) 76,60 %
02.02.2023 23:14 8,1 C 7,2 C 4,4 C 95 % 1026,4 hPa 0,0 l/m 0 min 0 min 0 W/m 6,4 km/h (2 Bft) 76,60 %
02.02.2023 23:16 8,1 C 7,2 C 4,4 C 95 % 1026,4 hPa 0,0 l/m 0 min 0 min 0 W/m 9,7 km/h (2 Bft) 82,98 %
02.02.2023 23:18 8,1 C 7,2 C 4,4 C 95 % 1026,5 hPa 0,0 l/m 0 min 0 min 0 W/m 16,1 km/h (3 Bft) 70,21 %
02.02.2023 23:20 8,1 C 7,8 C 4,4 C 95 % 1026,4 hPa 0,0 l/m 0 min 0 min 0 W/m 12,9 km/h (3 Bft) 44,68 %
02.02.2023 23:22 8,1 C 7,8 C 4,4 C 95 % 1026,5 hPa 0,0 l/m 0 min 0 min 0 W/m 19,3 km/h (3 Bft) 34,78 %
02.02.2023 23:24 8,2 C 7,8 C 4,4 C 95 % 1026,4 hPa 0,0 l/m 0 min 0 min 0 W/m 12,9 km/h (3 Bft) 23,40 %
02.02.2023 23:26 8,2 C 7,8 C 4,4 C 95 % 1026,4 hPa 0,0 l/m 0 min 0 min 0 W/m 6,4 km/h (2 Bft) 29,79 %
02.02.2023 23:28 8,2 C 7,8 C 4,4 C 95 % 1026,4 hPa 0,0 l/m 0 min 0 min 0 W/m 9,7 km/h (2 Bft) 25,53 %
02.02.2023 23:30 8,2 C 7,8 C 4,4 C 95 % 1026,5 hPa 0,0 l/m 0 min 0 min 0 W/m 6,4 km/h (2 Bft) 25,53 %
02.02.2023 23:32 8,2 C 7,8 C 4,4 C 95 % 1026,4 hPa 0,0 l/m 0 min 0 min 0 W/m 12,9 km/h (3 Bft) 14,89 %
02.02.2023 23:34 8,2 C 7,8 C 4,4 C 95 % 1026,4 hPa 0,0 l/m 0 min 0 min 0 W/m 16,1 km/h (3 Bft) 36,17 %
02.02.2023 23:36 8,2 C 7,8 C 4,4 C 95 % 1026,4 hPa 0,0 l/m 0 min 0 min 0 W/m 19,3 km/h (3 Bft) 39,13 %
02.02.2023 23:38 8,2 C 7,8 C 4,4 C 94 % 1026,4 hPa 0,0 l/m 0 min 0 min 0 W/m 6,4 km/h (2 Bft) 51,06 %
02.02.2023 23:40 8,2 C 7,8 C 4,4 C 94 % 1026,4 hPa 0,0 l/m 0 min 0 min 0 W/m 6,4 km/h (2 Bft) 89,36 %
02.02.2023 23:42 8,2 C 7,8 C 4,4 C 94 % 1026,5 hPa 0,0 l/m 0 min 0 min 0 W/m 12,9 km/h (3 Bft) 78,72 %
02.02.2023 23:44 8,2 C 7,8 C 4,4 C 95 % 1026,5 hPa 0,0 l/m 0 min 0 min 0 W/m 12,9 km/h (3 Bft) 85,11 %
02.02.2023 23:46 8,2 C 7,8 C 4,4 C 95 % 1026,5 hPa 0,0 l/m 0 min 0 min 0 W/m 12,9 km/h (3 Bft) 91,49 %
02.02.2023 23:48 8,2 C 7,8 C 4,4 C 94 % 1026,3 hPa 0,0 l/m 0 min 0 min 0 W/m 6,4 km/h (2 Bft) 97,83 %
02.02.2023 23:50 8,2 C 7,8 C 4,4 C 94 % 1026,4 hPa 0,0 l/m 0 min 0 min 0 W/m 9,7 km/h (2 Bft) 97,87 %
02.02.2023 23:52 8,2 C 7,8 C 4,4 C 94 % 1026,5 hPa 0,0 l/m 0 min 0 min 0 W/m 9,7 km/h (2 Bft) 97,87 %
02.02.2023 23:54 8,2 C 7,8 C 4,4 C 94 % 1026,4 hPa 0,0 l/m 0 min 0 min 0 W/m 6,4 km/h (2 Bft) 95,74 %
02.02.2023 23:56 8,2 C 7,8 C 4,4 C 94 % 1026,5 hPa 0,0 l/m 0 min 0 min 0 W/m 22,5 km/h (4 Bft) 93,62 %
02.02.2023 23:58 8,2 C 7,8 C 4,4 C 94 % 1026,5 hPa 0,0 l/m 0 min 0 min 0 W/m 12,9 km/h (3 Bft) 100,00 %
_ Min-Zeit 09:16 07:42 01:36 00:00 00:00 - - - - 20:04 23:32
Minimum _ 7,0 C 6,1 C 2,8 C 88 % 1021,0 hPa - - - - 0,0 km/h (0 Bft) 14,89 %
_ Max-Zeit 15:52 15:30 13:14 19:30 22:34 03:56 00:00 04:23 11:32 07:44 00:00
Maximum _ 8,7 C 8,3 C 5,0 C 98 % 1026,7 hPa 0,2 l/m 0 min 5 min 96 W/m 29,0 km/h
S-SW (5 Bft)
100,00 %
Durchschnitt _ 7,6 C 7,0 C 3,7 C 94 % 1023,8 hPa #2,2 l/m #0 min. #4:56 h 37 W/m 15,0 km/h (3 Bft) 95,32 %
© 2023 W. Hausmann